Observation data for Goodnight on 12/08/2018      Previous  Date       Current Mesonet Observations  Soil Data  Daily Summary Page  Observations in Plain Language
KGO1 080600Z 04004KT M01/M03 A3033 RMK A01 T10081027  RH  087%=      5-min Rain = 0
KGO1 080601Z 05004KT M01/M03 A3033 RMK A01 T10081026  RH  088%=      5-min Rain = 0
KGO1 080602Z 04003KT M01/M03 A3033 RMK A01 T10081025  RH  088%=      5-min Rain = 0
KGO1 080603Z 04003KT M01/M03 A3034 RMK A01 T10081025  RH  088%=      5-min Rain = 0
KGO1 080604Z 05004KT M01/M03 A3034 RMK A01 T10081025  RH  089%=      5-min Rain = 0
KGO1 080605Z 05004KT M01/M03 A3034 RMK A01 T10081025  RH  088%=      5-min Rain = 0
KGO1 080606Z 05004KT M01/M03 A3034 RMK A01 T10091027  RH  088%=      5-min Rain = 0
KGO1 080607Z 05004KT M01/M03 A3034 RMK A01 T10091027  RH  088%=      5-min Rain = 0
KGO1 080608Z 05005KT M01/M03 A3034 RMK A01 T10091027  RH  087%=      5-min Rain = 0
KGO1 080609Z 05005KT M01/M03 A3034 RMK A01 T10091029  RH  086%=      5-min Rain = 0
KGO1 080610Z 04005KT M01/M03 A3033 RMK A01 T10091029  RH  086%=      5-min Rain = 0
KGO1 080611Z 04006KT M01/M03 A3033 RMK A01 T10091029  RH  086%=      5-min Rain = 0
KGO1 080612Z 05004KT M01/M03 A3033 RMK A01 T10091029  RH  086%=      5-min Rain = 0
KGO1 080613Z 04006KT M01/M03 A3033 RMK A01 T10091027  RH  087%=      5-min Rain = 0
KGO1 080614Z 04005KT M01/M03 A3033 RMK A01 T10091029  RH  087%=      5-min Rain = 0
KGO1 080615Z 04005KT M01/M03 A3033 RMK A01 T10091029  RH  087%=      5-min Rain = 0
KGO1 080616Z 04004KT M01/M03 A3033 RMK A01 T10091028  RH  087%=      5-min Rain = 0
KGO1 080617Z 05004KT M01/M03 A3033 RMK A01 T10091028  RH  087%=      5-min Rain = 0
KGO1 080618Z 05004KT M01/M03 A3033 RMK A01 T10091027  RH  088%=      5-min Rain = 0
KGO1 080619Z 04004KT M01/M03 A3033 RMK A01 T10091028  RH  088%=      5-min Rain = 0
KGO1 080620Z 04004KT M01/M03 A3033 RMK A01 T10091027  RH  088%=      5-min Rain = 0
KGO1 080621Z 04004KT M01/M03 A3033 RMK A01 T10091027  RH  088%=      5-min Rain = 0
KGO1 080622Z 03004KT M01/M03 A3033 RMK A01 T10091028  RH  087%=      5-min Rain = 0
KGO1 080623Z 03005KT M01/M03 A3033 RMK A01 T10101029  RH  087%=      5-min Rain = 0
KGO1 080624Z 03005KT M01/M03 A3033 RMK A01 T10101029  RH  087%=      5-min Rain = 0
KGO1 080625Z 03005KT M01/M03 A3033 RMK A01 T10101029  RH  087%=      5-min Rain = 0
KGO1 080626Z 03005KT M01/M03 A3033 RMK A01 T10101029  RH  087%=      5-min Rain = 0
KGO1 080627Z 02005KT M01/M03 A3033 RMK A01 T10101030  RH  087%=      5-min Rain = 0
KGO1 080628Z 02006KT M01/M03 A3033 RMK A01 T10111030  RH  086%=      5-min Rain = 0
KGO1 080629Z 02006KT M01/M03 A3033 RMK A01 T10111030  RH  087%=      5-min Rain = 0
KGO1 080630Z 02007KT M01/M03 A3033 RMK A01 T10111029  RH  087%=      5-min Rain = 0
KGO1 080631Z 02007KT M01/M03 A3033 RMK A01 T10111029  RH  087%=      5-min Rain = 0
KGO1 080632Z 02007KT M01/M03 A3032 RMK A01 T10111029  RH  087%=      5-min Rain = 0
KGO1 080633Z 02007KT M01/M03 A3032 RMK A01 T10101030  RH  087%=      5-min Rain = 0
KGO1 080634Z 02008KT M01/M03 A3032 RMK A01 T10111030  RH  087%=      5-min Rain = 0
KGO1 080635Z 02008KT M01/M03 A3032 RMK A01 T10111030  RH  087%=      5-min Rain = 0
KGO1 080636Z 02008KT M01/M03 A3032 RMK A01 T10111030  RH  087%=      5-min Rain = 0
KGO1 080637Z 02007KT M01/M03 A3032 RMK A01 T10111029  RH  087%=      5-min Rain = 0
KGO1 080638Z 02007KT M01/M03 A3032 RMK A01 T10111029  RH  088%=      5-min Rain = 0
KGO1 080639Z 02006KT M01/M03 A3032 RMK A01 T10111028  RH  088%=      5-min Rain = 0
KGO1 080640Z 02007KT M01/M03 A3032 RMK A01 T10111029  RH  088%=      5-min Rain = 0
KGO1 080641Z 03007KT M01/M03 A3032 RMK A01 T10111029  RH  087%=      5-min Rain = 0
KGO1 080642Z 02006KT M01/M03 A3032 RMK A01 T10111030  RH  087%=      5-min Rain = 0
KGO1 080643Z 02007KT M01/M03 A3032 RMK A01 T10111030  RH  087%=      5-min Rain = 0
KGO1 080644Z 02006KT M01/M03 A3032 RMK A01 T10111031  RH  087%=      5-min Rain = 0
KGO1 080645Z 02007KT M01/M03 A3032 RMK A01 T10111031  RH  087%=      5-min Rain = 0
KGO1 080646Z 03008KT M01/M03 A3032 RMK A01 T10111031  RH  086%=      5-min Rain = 0
KGO1 080647Z 02007KT M01/M03 A3032 RMK A01 T10111032  RH  086%=      5-min Rain = 0
KGO1 080648Z 02008KT M01/M03 A3032 RMK A01 T10111032  RH  086%=      5-min Rain = 0
KGO1 080649Z 02008KT M01/M03 A3032 RMK A01 T10111032  RH  086%=      5-min Rain = 0
KGO1 080650Z 02008KT M01/M03 A3032 RMK A01 T10111032  RH  086%=      5-min Rain = 0
KGO1 080651Z 02007KT M01/M03 A3032 RMK A01 T10111032  RH  086%=      5-min Rain = 0
KGO1 080652Z 03007KT M01/M03 A3032 RMK A01 T10111032  RH  086%=      5-min Rain = 0
KGO1 080653Z 02007KT M01/M03 A3032 RMK A01 T10111032  RH  086%=      5-min Rain = 0
KGO1 080654Z 03007KT M01/M03 A3032 RMK A01 T10111032  RH  086%=      5-min Rain = 0
KGO1 080655Z 03007KT M01/M03 A3032 RMK A01 T10111033  RH  085%=      5-min Rain = 0
KGO1 080656Z 03006KT M01/M03 A3032 RMK A01 T10111033  RH  085%=      5-min Rain = 0
KGO1 080657Z 03007KT M01/M03 A3032 RMK A01 T10111033  RH  085%=      5-min Rain = 0
KGO1 080658Z 03007KT M01/M03 A3032 RMK A01 T10111033  RH  085%=      5-min Rain = 0
KGO1 080659Z 03007KT M01/M03 A3032 RMK A01 T10111034  RH  085%=      5-min Rain = 0
KGO1 080700Z 03007KT M01/M04 A3031 RMK A01 T10111035  RH  084%=      5-min Rain = 0
KGO1 080701Z 02008KT M01/M04 A3031 RMK A01 T10111035  RH  084%=      5-min Rain = 0
KGO1 080702Z 02008KT M01/M04 A3031 RMK A01 T10111036  RH  083%=      5-min Rain = 0
KGO1 080703Z 03008KT M01/M04 A3031 RMK A01 T10111035  RH  084%=      5-min Rain = 0
KGO1 080704Z 02008KT M01/M04 A3031 RMK A01 T10121035  RH  084%=      5-min Rain = 0
KGO1 080705Z 03006KT M01/M03 A3031 RMK A01 T10121034  RH  085%=      5-min Rain = 0
KGO1 080706Z 02007KT M01/M03 A3031 RMK A01 T10111033  RH  085%=      5-min Rain = 0
KGO1 080707Z 03008KT M01/M03 A3031 RMK A01 T10121033  RH  085%=      5-min Rain = 0
KGO1 080708Z 03009KT M01/M04 A3031 RMK A01 T10111035  RH  084%=      5-min Rain = 0
KGO1 080709Z 03008KT M01/M04 A3031 RMK A01 T10121036  RH  083%=      5-min Rain = 0
KGO1 080710Z 03007KT M01/M04 A3031 RMK A01 T10121036  RH  084%=      5-min Rain = 0
KGO1 080711Z 03008KT M01/M04 A3031 RMK A01 T10121036  RH  083%=      5-min Rain = 0
KGO1 080712Z 03007KT M01/M04 A3031 RMK A01 T10121037  RH  083%=      5-min Rain = 0
KGO1 080713Z 03007KT M01/M04 A3031 RMK A01 T10121037  RH  083%=      5-min Rain = 0
KGO1 080714Z 04007KT M01/M04 A3031 RMK A01 T10121038  RH  083%=      5-min Rain = 0
KGO1 080715Z 04006KT M01/M04 A3031 RMK A01 T10121038  RH  082%=      5-min Rain = 0
KGO1 080716Z 03004KT M01/M04 A3032 RMK A01 T10121037  RH  083%=      5-min Rain = 0
KGO1 080717Z 03004KT M01/M04 A3032 RMK A01 T10121036  RH  084%=      5-min Rain = 0
KGO1 080718Z 03005KT M01/M04 A3032 RMK A01 T10121036  RH  084%=      5-min Rain = 0
KGO1 080719Z 03006KT M01/M04 A3032 RMK A01 T10121037  RH  083%=      5-min Rain = 0
KGO1 080720Z 03006KT M01/M04 A3032 RMK A01 T10121038  RH  083%=      5-min Rain = 0
KGO1 080721Z 02006KT M01/M04 A3032 RMK A01 T10121037  RH  083%=      5-min Rain = 0
KGO1 080722Z 02005KT M01/M04 A3032 RMK A01 T10131037  RH  083%=      5-min Rain = 0
KGO1 080723Z 02005KT M01/M04 A3032 RMK A01 T10131037  RH  083%=      5-min Rain = 0
KGO1 080724Z 03005KT M01/M04 A3032 RMK A01 T10131037  RH  083%=      5-min Rain = 0
KGO1 080725Z 02005KT M01/M04 A3032 RMK A01 T10131038  RH  083%=      5-min Rain = 0
KGO1 080726Z 02005KT M01/M04 A3032 RMK A01 T10131038  RH  083%=      5-min Rain = 0
KGO1 080727Z 02005KT M01/M04 A3032 RMK A01 T10131038  RH  083%=      5-min Rain = 0
KGO1 080728Z 01006KT M01/M04 A3032 RMK A01 T10121036  RH  084%=      5-min Rain = 0
KGO1 080729Z 02005KT M01/M04 A3032 RMK A01 T10131036  RH  084%=      5-min Rain = 0
KGO1 080730Z 03006KT M01/M04 A3032 RMK A01 T10131037  RH  084%=      5-min Rain = 0
KGO1 080731Z 02006KT M01/M04 A3032 RMK A01 T10121036  RH  084%=      5-min Rain = 0
KGO1 080732Z 02007KT M01/M04 A3032 RMK A01 T10121037  RH  083%=      5-min Rain = 0
KGO1 080733Z 02005KT M01/M04 A3032 RMK A01 T10131037  RH  084%=      5-min Rain = 0
KGO1 080734Z 02004KT M01/M04 A3032 RMK A01 T10131037  RH  084%=      5-min Rain = 0
KGO1 080735Z 02005KT M01/M04 A3032 RMK A01 T10131036  RH  084%=      5-min Rain = 0
KGO1 080736Z 03005KT M01/M04 A3032 RMK A01 T10131037  RH  084%=      5-min Rain = 0
KGO1 080737Z 02005KT M01/M04 A3032 RMK A01 T10131037  RH  084%=      5-min Rain = 0
KGO1 080738Z 03004KT M01/M04 A3032 RMK A01 T10131037  RH  084%=      5-min Rain = 0
KGO1 080739Z 04004KT M01/M04 A3032 RMK A01 T10131037  RH  084%=      5-min Rain = 0
KGO1 080740Z 04004KT M01/M04 A3032 RMK A01 T10131038  RH  083%=      5-min Rain = 0
KGO1 080741Z 03004KT M01/M04 A3032 RMK A01 T10131037  RH  084%=      5-min Rain = 0
KGO1 080742Z 03004KT M01/M04 A3032 RMK A01 T10131037  RH  084%=      5-min Rain = 0
KGO1 080743Z 04003KT M01/M04 A3032 RMK A01 T10131037  RH  084%=      5-min Rain = 0
KGO1 080744Z 03004KT M01/M04 A3032 RMK A01 T10131037  RH  084%=      5-min Rain = 0
KGO1 080745Z 01004KT M01/M04 A3032 RMK A01 T10131038  RH  083%=      5-min Rain = 0
KGO1 080746Z 01005KT M01/M04 A3032 RMK A01 T10131040  RH  082%=      5-min Rain = 0
KGO1 080747Z 02005KT M01/M04 A3032 RMK A01 T10131039  RH  082%=      5-min Rain = 0
KGO1 080748Z 02005KT M01/M04 A3032 RMK A01 T10131040  RH  082%=      5-min Rain = 0
KGO1 080749Z 02005KT M01/M04 A3032 RMK A01 T10131040  RH  082%=      5-min Rain = 0
KGO1 080750Z 02005KT M01/M04 A3032 RMK A01 T10131039  RH  082%=      5-min Rain = 0
KGO1 080751Z 02006KT M01/M04 A3032 RMK A01 T10131039  RH  083%=      5-min Rain = 0
KGO1 080752Z 01006KT M01/M04 A3032 RMK A01 T10131039  RH  083%=      5-min Rain = 0
KGO1 080753Z 02005KT M01/M04 A3032 RMK A01 T10131039  RH  082%=      5-min Rain = 0
KGO1 080754Z 02006KT M01/M04 A3032 RMK A01 T10131038  RH  083%=      5-min Rain = 0
KGO1 080755Z 02007KT M01/M04 A3032 RMK A01 T10131039  RH  083%=      5-min Rain = 0
KGO1 080756Z 03006KT M01/M04 A3032 RMK A01 T10131037  RH  084%=      5-min Rain = 0
KGO1 080757Z 02006KT M01/M04 A3032 RMK A01 T10141036  RH  085%=      5-min Rain = 0
KGO1 080758Z 01006KT M01/M04 A3032 RMK A01 T10141036  RH  085%=      5-min Rain = 0
KGO1 080759Z 01006KT M01/M04 A3032 RMK A01 T10141037  RH  085%=      5-min Rain = 0
KGO1 080800Z 01006KT M01/M04 A3032 RMK A01 T10141038  RH  084%=      5-min Rain = 0
KGO1 080801Z 02005KT M01/M04 A3032 RMK A01 T10141039  RH  083%=      5-min Rain = 0
KGO1 080802Z 02006KT M01/M04 A3032 RMK A01 T10141039  RH  083%=      5-min Rain = 0
KGO1 080803Z 02006KT M01/M04 A3032 RMK A01 T10141040  RH  083%=      5-min Rain = 0
KGO1 080804Z 02006KT M01/M04 A3032 RMK A01 T10141039  RH  083%=      5-min Rain = 0
KGO1 080805Z 02007KT M01/M04 A3032 RMK A01 T10141039  RH  083%=      5-min Rain = 0
KGO1 080806Z 02007KT M01/M04 A3031 RMK A01 T10141040  RH  082%=      5-min Rain = 0
KGO1 080807Z 02008KT M01/M04 A3031 RMK A01 T10141041  RH  082%=      5-min Rain = 0
KGO1 080808Z 01008KT M01/M04 A3031 RMK A01 T10141041  RH  082%=      5-min Rain = 0
KGO1 080809Z 01008KT M01/M04 A3031 RMK A01 T10141041  RH  082%=      5-min Rain = 0
KGO1 080810Z 02007KT M01/M04 A3031 RMK A01 T10141042  RH  081%=      5-min Rain = 0
KGO1 080811Z 01007KT M01/M04 A3031 RMK A01 T10141041  RH  082%=      5-min Rain = 0
KGO1 080812Z 01008KT M01/M04 A3031 RMK A01 T10131041  RH  081%=      5-min Rain = 0
KGO1 080813Z 01008KT M01/M04 A3031 RMK A01 T10141042  RH  081%=      5-min Rain = 0
KGO1 080814Z 01008KT M01/M04 A3031 RMK A01 T10131042  RH  081%=      5-min Rain = 0
KGO1 080815Z 00008KT M01/M04 A3031 RMK A01 T10141041  RH  082%=      5-min Rain = 0
KGO1 080816Z 01009KT M01/M04 A3031 RMK A01 T10141040  RH  082%=      5-min Rain = 0
KGO1 080817Z 00010KT M01/M04 A3031 RMK A01 T10131040  RH  082%=      5-min Rain = 0
KGO1 080818Z 00010KT M01/M04 A3031 RMK A01 T10131039  RH  083%=      5-min Rain = 0
KGO1 080819Z 00010KT M01/M04 A3031 RMK A01 T10141039  RH  083%=      5-min Rain = 0
KGO1 080820Z 01009KT M01/M04 A3031 RMK A01 T10141039  RH  083%=      5-min Rain = 0
KGO1 080821Z 01008KT M01/M04 A3031 RMK A01 T10141038  RH  084%=      5-min Rain = 0
KGO1 080822Z 02010KT M01/M04 A3031 RMK A01 T10141038  RH  084%=      5-min Rain = 0
KGO1 080823Z 02011KT M01/M04 A3031 RMK A01 T10141039  RH  084%=      5-min Rain = 0
KGO1 080824Z 01010KT M01/M04 A3031 RMK A01 T10141039  RH  083%=      5-min Rain = 0
KGO1 080825Z 01010KT M01/M04 A3031 RMK A01 T10141039  RH  083%=      5-min Rain = 0
KGO1 080826Z 01010KT M01/M04 A303 RMK A01 T10141039  RH  083%=      5-min Rain = 0
KGO1 080827Z 02010KT M01/M04 A303 RMK A01 T10141040  RH  083%=      5-min Rain = 0
KGO1 080828Z 02011KT M01/M04 A303 RMK A01 T10141039  RH  083%=      5-min Rain = 0
KGO1 080829Z 01009KT M01/M04 A303 RMK A01 T10141038  RH  084%=      5-min Rain = 0
KGO1 080830Z 01009KT M01/M04 A303 RMK A01 T10141038  RH  084%=      5-min Rain = 0
KGO1 080831Z 01008KT M02/M04 A303 RMK A01 T10151038  RH  084%=      5-min Rain = 0
KGO1 080832Z 01009KT M02/M04 A303 RMK A01 T10151037  RH  085%=      5-min Rain = 0
KGO1 080833Z 01009KT M02/M04 A303 RMK A01 T10151038  RH  085%=      5-min Rain = 0
KGO1 080834Z 01007KT M02/M04 A303 RMK A01 T10151037  RH  085%=      5-min Rain = 0
KGO1 080835Z 00009KT M02/M04 A303 RMK A01 T10151036  RH  085%=      5-min Rain = 0
KGO1 080836Z 00009KT M02/M04 A303 RMK A01 T10161037  RH  085%=      5-min Rain = 0
KGO1 080837Z 01010KT M02/M04 A303 RMK A01 T10151037  RH  085%=      5-min Rain = 0
KGO1 080838Z 00010KT M02/M04 A303 RMK A01 T10161037  RH  086%=      5-min Rain = 0
KGO1 080839Z 01008KT M02/M04 A303 RMK A01 T10161037  RH  086%=      5-min Rain = 0
KGO1 080840Z 01009KT M02/M04 A303 RMK A01 T10161036  RH  086%=      5-min Rain = 0
KGO1 080841Z 00010KT M02/M04 A303 RMK A01 T10161037  RH  086%=      5-min Rain = 0
KGO1 080842Z 01009KT M02/M04 A303 RMK A01 T10161036  RH  086%=      5-min Rain = 0
KGO1 080843Z 00009KT M02/M04 A303 RMK A01 T10161036  RH  086%=      5-min Rain = 0
KGO1 080844Z 00009KT M02/M04 A303 RMK A01 T10161035  RH  087%=      5-min Rain = 0
KGO1 080845Z 00010KT M02/M04 A303 RMK A01 T10161035  RH  087%=      5-min Rain = 0
KGO1 080846Z 00009KT M02/M04 A303 RMK A01 T10161035  RH  087%=      5-min Rain = 0
KGO1 080847Z 00010KT M02/M03 A3029 RMK A01 T10161034  RH  087%=      5-min Rain = 0
KGO1 080848Z 00009KT M02/M04 A3029 RMK A01 T10161035  RH  087%=      5-min Rain = 0
KGO1 080849Z 01008KT M02/M04 A303 RMK A01 T10171035  RH  087%=      5-min Rain = 0
KGO1 080850Z 01009KT M02/M04 A303 RMK A01 T10171035  RH  088%=      5-min Rain = 0
KGO1 080851Z 01009KT M02/M04 A303 RMK A01 T10171035  RH  087%=      5-min Rain = 0
KGO1 080852Z 01009KT M02/M04 A303 RMK A01 T10171035  RH  087%=      5-min Rain = 0
KGO1 080853Z 01008KT M02/M04 A303 RMK A01 T10171035  RH  087%=      5-min Rain = 0
KGO1 080854Z 01009KT M02/M04 A303 RMK A01 T10171035  RH  087%=      5-min Rain = 0
KGO1 080855Z 01009KT M02/M04 A303 RMK A01 T10171035  RH  087%=      5-min Rain = 0
KGO1 080856Z 01008KT M02/M04 A303 RMK A01 T10171036  RH  087%=      5-min Rain = 0
KGO1 080857Z 01007KT M02/M04 A303 RMK A01 T10171035  RH  087%=      5-min Rain = 0
KGO1 080858Z 01007KT M02/M04 A303 RMK A01 T10171035  RH  088%=      5-min Rain = 0
KGO1 080859Z 00008KT M02/M03 A303 RMK A01 T10171034  RH  088%=      5-min Rain = 0
KGO1 080900Z 00007KT M02/M03 A303 RMK A01 T10171034  RH  088%=      5-min Rain = 0
KGO1 080901Z 01007KT M02/M03 A303 RMK A01 T10161034  RH  088%=      5-min Rain = 0
KGO1 080902Z 00007KT M02/M03 A303 RMK A01 T10171034  RH  088%=      5-min Rain = 0
KGO1 080903Z 00008KT M02/M03 A303 RMK A01 T10171034  RH  088%=      5-min Rain = 0
KGO1 080904Z 00009KT M02/M03 A303 RMK A01 T10171034  RH  088%=      5-min Rain = 0
KGO1 080905Z 36007KT M02/M03 A303 RMK A01 T10171034  RH  088%=      5-min Rain = 0
KGO1 080906Z 01008KT M02/M03 A303 RMK A01 T10171034  RH  088%=      5-min Rain = 0
KGO1 080907Z 36008KT M02/M03 A303 RMK A01 T10171034  RH  088%=      5-min Rain = 0
KGO1 080908Z 00010KT M02/M03 A3029 RMK A01 T10171034  RH  088%=      5-min Rain = 0
KGO1 080909Z 00010KT M02/M03 A3029 RMK A01 T10171034  RH  088%=      5-min Rain = 0
KGO1 080910Z 00010KT M02/M03 A3029 RMK A01 T10161034  RH  088%=      5-min Rain = 0
KGO1 080911Z 00011KT M02/M03 A3029 RMK A01 T10171033  RH  088%=      5-min Rain = 0
KGO1 080912Z 01009KT M02/M03 A3028 RMK A01 T10171034  RH  088%=      5-min Rain = 0
KGO1 080913Z 00011KT M02/M03 A3028 RMK A01 T10171033  RH  089%=      5-min Rain = 0
KGO1 080914Z 36011KT M02/M03 A3029 RMK A01 T10171034  RH  089%=      5-min Rain = 0
KGO1 080915Z 01009KT M02/M03 A3029 RMK A01 T10171034  RH  088%=      5-min Rain = 0
KGO1 080916Z 01009KT M02/M03 A3029 RMK A01 T10171034  RH  088%=      5-min Rain = 0
KGO1 080917Z 00009KT M02/M03 A3029 RMK A01 T10171034  RH  088%=      5-min Rain = 0
KGO1 080918Z 01010KT M02/M03 A3029 RMK A01 T10171034  RH  088%=      5-min Rain = 0
KGO1 080919Z 01011KT M02/M04 A3029 RMK A01 T10171035  RH  088%=      5-min Rain = 0
KGO1 080920Z 01010KT M02/M04 A3029 RMK A01 T10171036  RH  087%=      5-min Rain = 0
KGO1 080921Z 01008KT M02/M04 A3029 RMK A01 T10171036  RH  087%=      5-min Rain = 0
KGO1 080922Z 01008KT M02/M04 A3029 RMK A01 T10171036  RH  087%=      5-min Rain = 0
KGO1 080923Z 02009KT M02/M04 A3029 RMK A01 T10171036  RH  087%=      5-min Rain = 0
KGO1 080924Z 02007KT M02/M04 A3029 RMK A01 T10171036  RH  087%=      5-min Rain = 0
KGO1 080925Z 02006KT M02/M04 A303 RMK A01 T10171036  RH  087%=      5-min Rain = 0
KGO1 080926Z 02007KT M02/M04 A3029 RMK A01 T10171036  RH  087%=      5-min Rain = 0
KGO1 080927Z 02008KT M02/M04 A3029 RMK A01 T10171036  RH  087%=      5-min Rain = 0
KGO1 080928Z 02009KT M02/M04 A3029 RMK A01 T10161036  RH  086%=      5-min Rain = 0
KGO1 080929Z 01008KT M02/M04 A3029 RMK A01 T10171036  RH  087%=      5-min Rain = 0
KGO1 080930Z 01008KT M02/M04 A3029 RMK A01 T10171036  RH  087%=      5-min Rain = 0
KGO1 080931Z 02008KT M02/M04 A3029 RMK A01 T10171036  RH  087%=      5-min Rain = 0
KGO1 080932Z 01008KT M02/M04 A3029 RMK A01 T10161035  RH  087%=      5-min Rain = 0
KGO1 080933Z 01009KT M02/M04 A3029 RMK A01 T10161036  RH  087%=      5-min Rain = 0
KGO1 080934Z 01008KT M02/M04 A3029 RMK A01 T10161036  RH  086%=      5-min Rain = 0
KGO1 080935Z 01008KT M02/M04 A3029 RMK A01 T10161036  RH  086%=      5-min Rain = 0
KGO1 080936Z 01008KT M02/M04 A3029 RMK A01 T10161036  RH  086%=      5-min Rain = 0
KGO1 080937Z 01007KT M02/M04 A3029 RMK A01 T10161036  RH  086%=      5-min Rain = 0
KGO1 080938Z 01007KT M02/M04 A3029 RMK A01 T10151036  RH  086%=      5-min Rain = 0
KGO1 080939Z 01006KT M02/M04 A3029 RMK A01 T10151036  RH  086%=      5-min Rain = 0
KGO1 080940Z 01007KT M02/M04 A3029 RMK A01 T10151036  RH  086%=      5-min Rain = 0
KGO1 080941Z 01008KT M02/M04 A3029 RMK A01 T10151037  RH  085%=      5-min Rain = 0
KGO1 080942Z 01007KT M02/M04 A3029 RMK A01 T10151038  RH  085%=      5-min Rain = 0
KGO1 080943Z 02009KT M02/M04 A3029 RMK A01 T10151037  RH  085%=      5-min Rain = 0
KGO1 080944Z 01008KT M02/M04 A3029 RMK A01 T10151039  RH  084%=      5-min Rain = 0
KGO1 080945Z 01008KT M02/M04 A3029 RMK A01 T10151039  RH  084%=      5-min Rain = 0
KGO1 080946Z 01008KT M02/M04 A3029 RMK A01 T10151039  RH  084%=      5-min Rain = 0
KGO1 080947Z 01008KT M02/M04 A3029 RMK A01 T10151039  RH  083%=      5-min Rain = 0
KGO1 080948Z 01008KT M01/M04 A3029 RMK A01 T10141039  RH  084%=      5-min Rain = 0
KGO1 080949Z 01009KT M01/M04 A3029 RMK A01 T10141038  RH  084%=      5-min Rain = 0
KGO1 080950Z 01008KT M01/M04 A3029 RMK A01 T10141039  RH  083%=      5-min Rain = 0
KGO1 080951Z 01008KT M01/M04 A3029 RMK A01 T10141039  RH  083%=      5-min Rain = 0
KGO1 080952Z 01007KT M01/M04 A3029 RMK A01 T10141039  RH  083%=      5-min Rain = 0
KGO1 080953Z 01007KT M01/M04 A3029 RMK A01 T10141039  RH  084%=      5-min Rain = 0
KGO1 080954Z 00008KT M01/M04 A3029 RMK A01 T10141039  RH  083%=      5-min Rain = 0
KGO1 080955Z 01008KT M01/M04 A3029 RMK A01 T10141039  RH  083%=      5-min Rain = 0
KGO1 080956Z 00009KT M01/M04 A3029 RMK A01 T10141040  RH  083%=      5-min Rain = 0
KGO1 080957Z 00006KT M01/M04 A3029 RMK A01 T10141040  RH  083%=      5-min Rain = 0
KGO1 080958Z 00007KT M01/M04 A3029 RMK A01 T10141039  RH  083%=      5-min Rain = 0
KGO1 080959Z 00008KT M01/M04 A3029 RMK A01 T10141039  RH  083%=      5-min Rain = 0
KGO1 081000Z 01009KT M01/M04 A3029 RMK A01 T10141040  RH  083%=      5-min Rain = 0
KGO1 081001Z 00008KT M01/M04 A3029 RMK A01 T10141040  RH  082%=      5-min Rain = 0
KGO1 081002Z 00009KT M01/M04 A3028 RMK A01 T10141040  RH  082%=      5-min Rain = 0
KGO1 081003Z 00009KT M01/M04 A3028 RMK A01 T10141040  RH  082%=      5-min Rain = 0
KGO1 081004Z 00009KT M01/M04 A3028 RMK A01 T10141040  RH  082%=      5-min Rain = 0
KGO1 081005Z 00009KT M01/M04 A3028 RMK A01 T10141041  RH  082%=      5-min Rain = 0
KGO1 081006Z 00009KT M01/M04 A3028 RMK A01 T10141041  RH  082%=      5-min Rain = 0
KGO1 081007Z 00007KT M01/M04 A3028 RMK A01 T10141040  RH  082%=      5-min Rain = 0
KGO1 081008Z 00008KT M01/M04 A3028 RMK A01 T10141039  RH  083%=      5-min Rain = 0
KGO1 081009Z 36009KT M01/M04 A3028 RMK A01 T10141039  RH  083%=      5-min Rain = 0
KGO1 081010Z 00009KT M01/M04 A3029 RMK A01 T10141040  RH  083%=      5-min Rain = 0
KGO1 081011Z 36009KT M01/M04 A3029 RMK A01 T10141041  RH  082%=      5-min Rain = 0
KGO1 081012Z 00009KT M01/M04 A3028 RMK A01 T10141041  RH  082%=      5-min Rain = 0
KGO1 081013Z 00009KT M01/M04 A3028 RMK A01 T10141042  RH  081%=      5-min Rain = 0
KGO1 081014Z 00008KT M01/M04 A3028 RMK A01 T10141042  RH  081%=      5-min Rain = 0
KGO1 081015Z 36008KT M01/M04 A3028 RMK A01 T10141041  RH  082%=      5-min Rain = 0
KGO1 081016Z 35010KT M01/M04 A3028 RMK A01 T10141041  RH  082%=      5-min Rain = 0
KGO1 081017Z 36008KT M01/M04 A3028 RMK A01 T10141041  RH  081%=      5-min Rain = 0
KGO1 081018Z 36007KT M01/M04 A3028 RMK A01 T10141042  RH  081%=      5-min Rain = 0
KGO1 081019Z 35007KT M01/M04 A3028 RMK A01 T10131042  RH  081%=      5-min Rain = 0
KGO1 081020Z 35008KT M01/M04 A3028 RMK A01 T10131042  RH  081%=      5-min Rain = 0
KGO1 081021Z 35009KT M01/M04 A3028 RMK A01 T10131043  RH  080%=      5-min Rain = 0
KGO1 081022Z 36009KT M01/M04 A3028 RMK A01 T10131043  RH  080%=      5-min Rain = 0
KGO1 081023Z 00009KT M01/M04 A3028 RMK A01 T10131043  RH  080%=      5-min Rain = 0
KGO1 081024Z 00009KT M01/M04 A3028 RMK A01 T10131043  RH  080%=      5-min Rain = 0
KGO1 081025Z 01009KT M01/M04 A3028 RMK A01 T10131043  RH  080%=      5-min Rain = 0
KGO1 081026Z 01010KT M01/M04 A3027 RMK A01 T10141043  RH  080%=      5-min Rain = 0
KGO1 081027Z 01010KT M01/M04 A3027 RMK A01 T10141044  RH  080%=      5-min Rain = 0
KGO1 081028Z 00010KT M01/M04 A3027 RMK A01 T10141044  RH  080%=      5-min Rain = 0
KGO1 081029Z 00009KT M01/M04 A3028 RMK A01 T10141044  RH  080%=      5-min Rain = 0
KGO1 081030Z 00009KT M01/M04 A3028 RMK A01 T10131043  RH  080%=      5-min Rain = 0
KGO1 081031Z 01009KT M01/M04 A3028 RMK A01 T10141043  RH  081%=      5-min Rain = 0
KGO1 081032Z 00009KT M01/M04 A3027 RMK A01 T10141042  RH  081%=      5-min Rain = 0
KGO1 081033Z 01008KT M01/M04 A3027 RMK A01 T10131042  RH  081%=      5-min Rain = 0
KGO1 081034Z 01009KT M01/M04 A3027 RMK A01 T10131042  RH  081%=      5-min Rain = 0
KGO1 081035Z 01010KT M01/M04 A3027 RMK A01 T10141042  RH  081%=      5-min Rain = 0
KGO1 081036Z 00009KT M01/M04 A3027 RMK A01 T10131042  RH  081%=      5-min Rain = 0
KGO1 081037Z 36010KT M01/M04 A3027 RMK A01 T10141042  RH  081%=      5-min Rain = 0
KGO1 081038Z 00010KT M01/M04 A3027 RMK A01 T10131043  RH  081%=      5-min Rain = 0
KGO1 081039Z 36010KT M01/M04 A3027 RMK A01 T10131043  RH  081%=      5-min Rain = 0
KGO1 081040Z 36009KT M01/M04 A3027 RMK A01 T10141043  RH  080%=      5-min Rain = 0
KGO1 081041Z 36009KT M01/M04 A3027 RMK A01 T10131043  RH  081%=      5-min Rain = 0
KGO1 081042Z 36009KT M01/M04 A3027 RMK A01 T10131043  RH  081%=      5-min Rain = 0
KGO1 081043Z 00008KT M01/M04 A3027 RMK A01 T10141042  RH  081%=      5-min Rain = 0
KGO1 081044Z 00009KT M01/M04 A3027 RMK A01 T10141043  RH  081%=      5-min Rain = 0
KGO1 081045Z 00009KT M01/M04 A3027 RMK A01 T10141043  RH  080%=      5-min Rain = 0
KGO1 081046Z 00008KT M01/M04 A3027 RMK A01 T10141044  RH  080%=      5-min Rain = 0
KGO1 081047Z 36008KT M01/M04 A3027 RMK A01 T10141044  RH  080%=      5-min Rain = 0
KGO1 081048Z 36010KT M01/M04 A3028 RMK A01 T10141044  RH  080%=      5-min Rain = 0
KGO1 081049Z 35010KT M01/M05 A3028 RMK A01 T10141046  RH  079%=      5-min Rain = 0
KGO1 081050Z 35008KT M01/M05 A3028 RMK A01 T10141045  RH  079%=      5-min Rain = 0
KGO1 081051Z 36008KT M01/M05 A3028 RMK A01 T10141045  RH  079%=      5-min Rain = 0
KGO1 081052Z 36009KT M01/M05 A3028 RMK A01 T10141045  RH  079%=      5-min Rain = 0
KGO1 081053Z 36010KT M01/M05 A3028 RMK A01 T10141045  RH  079%=      5-min Rain = 0
KGO1 081054Z 36009KT M01/M05 A3028 RMK A01 T10141045  RH  079%=      5-min Rain = 0
KGO1 081055Z 35008KT M01/M05 A3028 RMK A01 T10141045  RH  079%=      5-min Rain = 0
KGO1 081056Z 35009KT M01/M05 A3028 RMK A01 T10141045  RH  079%=      5-min Rain = 0
KGO1 081057Z 35008KT M01/M05 A3028 RMK A01 T10141045  RH  080%=      5-min Rain = 0
KGO1 081058Z 35007KT M01/M04 A3028 RMK A01 T10141044  RH  080%=      5-min Rain = 0
KGO1 081059Z 35007KT M01/M04 A3028 RMK A01 T10141043  RH  080%=      5-min Rain = 0
KGO1 081100Z 35006KT M01/M04 A3028 RMK A01 T10141043  RH  081%=      5-min Rain = 0
KGO1 081101Z 35007KT M01/M04 A3028 RMK A01 T10141043  RH  081%=      5-min Rain = 0
KGO1 081102Z 35008KT M01/M04 A3028 RMK A01 T10141043  RH  081%=      5-min Rain = 0
KGO1 081103Z 35008KT M01/M04 A3028 RMK A01 T10141043  RH  081%=      5-min Rain = 0
KGO1 081104Z 35009KT M01/M04 A3028 RMK A01 T10141043  RH  081%=      5-min Rain = 0
KGO1 081105Z 35008KT M01/M04 A3027 RMK A01 T10141043  RH  080%=      5-min Rain = 0
KGO1 081106Z 35009KT M01/M04 A3027 RMK A01 T10141042  RH  081%=      5-min Rain = 0
KGO1 081107Z 35008KT M01/M04 A3027 RMK A01 T10141043  RH  081%=      5-min Rain = 0
KGO1 081108Z 35009KT M01/M04 A3027 RMK A01 T10141043  RH  081%=      5-min Rain = 0
KGO1 081109Z 34007KT M01/M04 A3027 RMK A01 T10141043  RH  081%=      5-min Rain = 0
KGO1 081110Z 34008KT M01/M04 A3028 RMK A01 T10141042  RH  081%=      5-min Rain = 0
KGO1 081111Z 34008KT M01/M04 A3028 RMK A01 T10131041  RH  081%=      5-min Rain = 0
KGO1 081112Z 34008KT M01/M04 A3028 RMK A01 T10141042  RH  081%=      5-min Rain = 0
KGO1 081113Z 34009KT M01/M04 A3028 RMK A01 T10141042  RH  081%=      5-min Rain = 0
KGO1 081114Z 34006KT M01/M04 A3028 RMK A01 T10141042  RH  081%=      5-min Rain = 0
KGO1 081115Z 34007KT M01/M04 A3028 RMK A01 T10131041  RH  081%=      5-min Rain = 0
KGO1 081116Z 34007KT M01/M04 A3028 RMK A01 T10131042  RH  081%=      5-min Rain = 0
KGO1 081117Z 34008KT M01/M04 A3028 RMK A01 T10131042  RH  081%=      5-min Rain = 0
KGO1 081118Z 34009KT M01/M04 A3028 RMK A01 T10131042  RH  081%=      5-min Rain = 0
KGO1 081119Z 35008KT M01/M04 A3028 RMK A01 T10131042  RH  081%=      5-min Rain = 0
KGO1 081120Z 34008KT M01/M04 A3028 RMK A01 T10141042  RH  081%=      5-min Rain = 0
KGO1 081121Z 33008KT M01/M04 A3028 RMK A01 T10141042  RH  081%=      5-min Rain = 0
KGO1 081122Z 34009KT M01/M04 A3028 RMK A01 T10131042  RH  081%=      5-min Rain = 0
KGO1 081123Z 34009KT M01/M04 A3028 RMK A01 T10131043  RH  080%=      5-min Rain = 0
KGO1 081124Z 34009KT M01/M04 A3028 RMK A01 T10131043  RH  080%=      5-min Rain = 0
KGO1 081125Z 35008KT M01/M04 A3028 RMK A01 T10131042  RH  081%=      5-min Rain = 0
KGO1 081126Z 35009KT M01/M04 A3027 RMK A01 T10131041  RH  081%=      5-min Rain = 0
KGO1 081127Z 35009KT M01/M04 A3027 RMK A01 T10131042  RH  081%=      5-min Rain = 0
KGO1 081128Z 34009KT M01/M04 A3028 RMK A01 T10131043  RH  080%=      5-min Rain = 0
KGO1 081129Z 35009KT M01/M04 A3028 RMK A01 T10131042  RH  080%=      5-min Rain = 0
KGO1 081130Z 34009KT M01/M04 A3028 RMK A01 T10131042  RH  081%=      5-min Rain = 0
KGO1 081131Z 35009KT M01/M04 A3028 RMK A01 T10131042  RH  081%=      5-min Rain = 0
KGO1 081132Z 35009KT M01/M04 A3028 RMK A01 T10131042  RH  081%=      5-min Rain = 0
KGO1 081133Z 35011KT M01/M04 A3027 RMK A01 T10131041  RH  081%=      5-min Rain = 0
KGO1 081134Z 35010KT M01/M04 A3027 RMK A01 T10131042  RH  081%=      5-min Rain = 0
KGO1 081135Z 35010KT M01/M04 A3027 RMK A01 T10131043  RH  080%=      5-min Rain = 0
KGO1 081136Z 36009KT M01/M04 A3028 RMK A01 T10131042  RH  080%=      5-min Rain = 0
KGO1 081137Z 35009KT M01/M04 A3028 RMK A01 T10131042  RH  081%=      5-min Rain = 0
KGO1 081138Z 34010KT M01/M04 A3028 RMK A01 T10131042  RH  081%=      5-min Rain = 0
KGO1 081139Z 35010KT M01/M04 A3028 RMK A01 T10131043  RH  080%=      5-min Rain = 0
KGO1 081140Z 34010KT M01/M04 A3028 RMK A01 T10131043  RH  080%=      5-min Rain = 0
KGO1 081141Z 35010KT M01/M04 A3028 RMK A01 T10131043  RH  080%=      5-min Rain = 0
KGO1 081142Z 35010KT M01/M04 A3028 RMK A01 T10131043  RH  080%=      5-min Rain = 0
KGO1 081143Z 35009KT M01/M04 A3027 RMK A01 T10131042  RH  080%=      5-min Rain = 0
KGO1 081144Z 36010KT M01/M04 A3028 RMK A01 T10131042  RH  081%=      5-min Rain = 0
KGO1 081145Z 35011KT M01/M04 A3028 RMK A01 T10131042  RH  081%=      5-min Rain = 0
KGO1 081146Z 35011KT M01/M04 A3028 RMK A01 T10131042  RH  081%=      5-min Rain = 0
KGO1 081147Z 35011KT M01/M04 A3028 RMK A01 T10131042  RH  081%=      5-min Rain = 0
KGO1 081148Z 36010KT M01/M04 A3028 RMK A01 T10131041  RH  081%=      5-min Rain = 0
KGO1 081149Z 35009KT M01/M04 A3028 RMK A01 T10131042  RH  081%=      5-min Rain = 0
KGO1 081150Z 35008KT M01/M04 A3028 RMK A01 T10131041  RH  081%=      5-min Rain = 0
KGO1 081151Z 36007KT M01/M04 A3028 RMK A01 T10131040  RH  082%=      5-min Rain = 0
KGO1 081152Z 36006KT M01/M04 A3028 RMK A01 T10131040  RH  082%=      5-min Rain = 0
KGO1 081153Z 36007KT M01/M04 A3028 RMK A01 T10131040  RH  082%=      5-min Rain = 0
KGO1 081154Z 35008KT M01/M04 A3028 RMK A01 T10131040  RH  082%=      5-min Rain = 0
KGO1 081155Z 36009KT M01/M04 A3028 RMK A01 T10131042  RH  081%=      5-min Rain = 0
KGO1 081156Z 00009KT M01/M04 A3028 RMK A01 T10131043  RH  080%=      5-min Rain = 0
KGO1 081157Z 36009KT M01/M04 A3028 RMK A01 T10131044  RH  079%=      5-min Rain = 0
KGO1 081158Z 36008KT M01/M04 A3028 RMK A01 T10131044  RH  080%=      5-min Rain = 0
KGO1 081159Z 00009KT M01/M04 A3028 RMK A01 T10131043  RH  080%=      5-min Rain = 0
KGO1 081200Z 00008KT M01/M04 A3028 RMK A01 T10131043  RH  080%=      5-min Rain = 0
KGO1 081201Z 36010KT M01/M04 A3028 RMK A01 T10131043  RH  080%=      5-min Rain = 0
KGO1 081202Z 00010KT M01/M04 A3028 RMK A01 T10131044  RH  079%=      5-min Rain = 0
KGO1 081203Z 00011KT M01/M05 A3028 RMK A01 T10131045  RH  079%=      5-min Rain = 0
KGO1 081204Z 00010KT M01/M05 A3028 RMK A01 T10131046  RH  078%=      5-min Rain = 0
KGO1 081205Z 00009KT M01/M05 A3028 RMK A01 T10131047  RH  078%=      5-min Rain = 0
KGO1 081206Z 00009KT M01/M05 A3029 RMK A01 T10131047  RH  078%=      5-min Rain = 0
KGO1 081207Z 00009KT M01/M05 A3029 RMK A01 T10131046  RH  078%=      5-min Rain = 0
KGO1 081208Z 01009KT M01/M05 A3029 RMK A01 T10131047  RH  078%=      5-min Rain = 0
KGO1 081209Z 00009KT M01/M05 A3029 RMK A01 T10131047  RH  078%=      5-min Rain = 0
KGO1 081210Z 01009KT M01/M05 A3029 RMK A01 T10131048  RH  077%=      5-min Rain = 0
KGO1 081211Z 00009KT M01/M05 A3029 RMK A01 T10131048  RH  077%=      5-min Rain = 0
KGO1 081212Z 00009KT M01/M05 A3029 RMK A01 T10131048  RH  077%=      5-min Rain = 0
KGO1 081213Z 36009KT M01/M05 A3029 RMK A01 T10131048  RH  077%=      5-min Rain = 0
KGO1 081214Z 00009KT M01/M05 A3029 RMK A01 T10131048  RH  077%=      5-min Rain = 0
KGO1 081215Z 00010KT M01/M05 A3029 RMK A01 T10131048  RH  077%=      5-min Rain = 0
KGO1 081216Z 01009KT M01/M05 A3029 RMK A01 T10131049  RH  076%=      5-min Rain = 0
KGO1 081217Z 00008KT M01/M05 A3029 RMK A01 T10131049  RH  076%=      5-min Rain = 0
KGO1 081218Z 00009KT M01/M05 A303 RMK A01 T10131049  RH  076%=      5-min Rain = 0
KGO1 081219Z 36009KT M01/M05 A303 RMK A01 T10131049  RH  077%=      5-min Rain = 0
KGO1 081220Z 35010KT M01/M05 A303 RMK A01 T10131049  RH  077%=      5-min Rain = 0
KGO1 081221Z 00011KT M01/M05 A3029 RMK A01 T10131049  RH  077%=      5-min Rain = 0
KGO1 081222Z 36010KT M01/M05 A3029 RMK A01 T10131049  RH  077%=      5-min Rain = 0
KGO1 081223Z 00010KT M01/M05 A3029 RMK A01 T10131048  RH  077%=      5-min Rain = 0
KGO1 081224Z 36008KT M01/M05 A3029 RMK A01 T10131048  RH  077%=      5-min Rain = 0
KGO1 081225Z 36010KT M01/M05 A3029 RMK A01 T10131047  RH  077%=      5-min Rain = 0
KGO1 081226Z 36009KT M01/M05 A3029 RMK A01 T10141048  RH  078%=      5-min Rain = 0
KGO1 081227Z 00009KT M01/M05 A3029 RMK A01 T10131047  RH  078%=      5-min Rain = 0
KGO1 081228Z 00010KT M01/M05 A3029 RMK A01 T10131047  RH  078%=      5-min Rain = 0
KGO1 081229Z 00009KT M01/M05 A3029 RMK A01 T10131048  RH  077%=      5-min Rain = 0
KGO1 081230Z 00010KT M01/M05 A3029 RMK A01 T10131048  RH  077%=      5-min Rain = 0
KGO1 081231Z 00008KT M01/M05 A3029 RMK A01 T10141047  RH  078%=      5-min Rain = 0
KGO1 081232Z 00008KT M01/M05 A303 RMK A01 T10131047  RH  078%=      5-min Rain = 0
KGO1 081233Z 00009KT M01/M05 A303 RMK A01 T10131047  RH  078%=      5-min Rain = 0
KGO1 081234Z 01009KT M01/M05 A303 RMK A01 T10141047  RH  078%=      5-min Rain = 0
KGO1 081235Z 36010KT M01/M05 A303 RMK A01 T10131048  RH  077%=      5-min Rain = 0
KGO1 081236Z 01009KT M01/M05 A303 RMK A01 T10141050  RH  076%=      5-min Rain = 0
KGO1 081237Z 01009KT M01/M05 A3029 RMK A01 T10141049  RH  077%=      5-min Rain = 0
KGO1 081238Z 00009KT M01/M05 A3029 RMK A01 T10131049  RH  077%=      5-min Rain = 0
KGO1 081239Z 01009KT M01/M05 A3029 RMK A01 T10141049  RH  077%=      5-min Rain = 0
KGO1 081240Z 01010KT M01/M05 A3029 RMK A01 T10141050  RH  076%=      5-min Rain = 0
KGO1 081241Z 01010KT M01/M05 A3029 RMK A01 T10141050  RH  076%=      5-min Rain = 0
KGO1 081242Z 01009KT M01/M05 A3029 RMK A01 T10141051  RH  076%=      5-min Rain = 0
KGO1 081243Z 01009KT M01/M05 A3029 RMK A01 T10141052  RH  076%=      5-min Rain = 0
KGO1 081244Z 01011KT M01/M05 A3029 RMK A01 T10141052  RH  075%=      5-min Rain = 0
KGO1 081245Z 01009KT M01/M05 A3029 RMK A01 T10141052  RH  075%=      5-min Rain = 0
KGO1 081246Z 01008KT M01/M05 A3029 RMK A01 T10141052  RH  076%=      5-min Rain = 0
KGO1 081247Z 01008KT M01/M05 A3029 RMK A01 T10141051  RH  076%=      5-min Rain = 0
KGO1 081248Z 01008KT M02/M05 A3029 RMK A01 T10151051  RH  076%=      5-min Rain = 0
KGO1 081249Z 01010KT M02/M05 A3029 RMK A01 T10151052  RH  076%=      5-min Rain = 0
KGO1 081250Z 01010KT M02/M05 A3029 RMK A01 T10151053  RH  075%=      5-min Rain = 0
KGO1 081251Z 01009KT M02/M05 A3029 RMK A01 T10151053  RH  075%=      5-min Rain = 0
KGO1 081252Z 00011KT M02/M05 A3029 RMK A01 T10151053  RH  075%=      5-min Rain = 0
KGO1 081253Z 00010KT M02/M06 A3029 RMK A01 T10151055  RH  074%=      5-min Rain = 0
KGO1 081254Z 00011KT M02/M06 A3029 RMK A01 T10151055  RH  074%=      5-min Rain = 0
KGO1 081255Z 00011KT M02/M05 A3029 RMK A01 T10151054  RH  074%=      5-min Rain = 0
KGO1 081256Z 01011KT M02/M06 A3029 RMK A01 T10151056  RH  074%=      5-min Rain = 0
KGO1 081257Z 00011KT M02/M06 A3029 RMK A01 T10151056  RH  074%=      5-min Rain = 0
KGO1 081258Z 00011KT M02/M06 A3029 RMK A01 T10151056  RH  074%=      5-min Rain = 0
KGO1 081259Z 01010KT M02/M06 A3029 RMK A01 T10151056  RH  074%=      5-min Rain = 0
KGO1 081300Z 00011KT M02/M06 A3029 RMK A01 T10151056  RH  074%=      5-min Rain = 0
KGO1 081301Z 36012KT M02/M06 A3029 RMK A01 T10151057  RH  073%=      5-min Rain = 0
KGO1 081302Z 00011KT M02/M06 A3029 RMK A01 T10151057  RH  073%=      5-min Rain = 0
KGO1 081303Z 36010KT M02/M06 A3029 RMK A01 T10151056  RH  073%=      5-min Rain = 0
KGO1 081304Z 36011KT M02/M06 A3029 RMK A01 T10151056  RH  074%=      5-min Rain = 0
KGO1 081305Z 36010KT M02/M06 A3029 RMK A01 T10151057  RH  073%=      5-min Rain = 0
KGO1 081306Z 36009KT M02/M06 A3029 RMK A01 T10151056  RH  074%=      5-min Rain = 0
KGO1 081307Z 01009KT M02/M06 A3029 RMK A01 T10161056  RH  074%=      5-min Rain = 0
KGO1 081308Z 00008KT M02/M06 A3029 RMK A01 T10151056  RH  074%=      5-min Rain = 0
KGO1 081309Z 00008KT M02/M06 A3029 RMK A01 T10161056  RH  074%=      5-min Rain = 0
KGO1 081310Z 01009KT M02/M06 A3029 RMK A01 T10151056  RH  074%=      5-min Rain = 0
KGO1 081311Z 00008KT M02/M06 A3029 RMK A01 T10151056  RH  073%=      5-min Rain = 0
KGO1 081312Z 01009KT M02/M06 A3029 RMK A01 T10151057  RH  073%=      5-min Rain = 0
KGO1 081313Z 01008KT M02/M06 A3029 RMK A01 T10161058  RH  073%=      5-min Rain = 0
KGO1 081314Z 01009KT M02/M06 A3029 RMK A01 T10161059  RH  073%=      5-min Rain = 0
KGO1 081315Z 01009KT M02/M06 A3029 RMK A01 T10161059  RH  072%=      5-min Rain = 0
KGO1 081316Z 01009KT M02/M06 A3029 RMK A01 T10161059  RH  072%=      5-min Rain = 0
KGO1 081317Z 01009KT M02/M06 A3029 RMK A01 T10161058  RH  073%=      5-min Rain = 0
KGO1 081318Z 00009KT M02/M06 A3029 RMK A01 T10161058  RH  073%=      5-min Rain = 0
KGO1 081319Z 01012KT M02/M06 A3029 RMK A01 T10161060  RH  072%=      5-min Rain = 0
KGO1 081320Z 00012KT M02/M06 A3029 RMK A01 T10161062  RH  071%=      5-min Rain = 0
KGO1 081321Z 01011KT M02/M06 A3029 RMK A01 T10171063  RH  071%=      5-min Rain = 0
KGO1 081322Z 01011KT M02/M06 A3029 RMK A01 T10171063  RH  071%=      5-min Rain = 0
KGO1 081323Z 00010KT M02/M06 A3029 RMK A01 T10171064  RH  070%=      5-min Rain = 0
KGO1 081324Z 00012KT M02/M06 A3029 RMK A01 T10171064  RH  070%=      5-min Rain = 0
KGO1 081325Z 00011KT M02/M07 A3029 RMK A01 T10171065  RH  070%=      5-min Rain = 0
KGO1 081326Z 36008KT M02/M07 A3029 RMK A01 T10171065  RH  070%=      5-min Rain = 0
KGO1 081327Z 00011KT M02/M07 A3029 RMK A01 T10171065  RH  070%=      5-min Rain = 0
KGO1 081328Z 00011KT M02/M07 A3029 RMK A01 T10171067  RH  069%=      5-min Rain = 0
KGO1 081329Z 00009KT M02/M07 A3029 RMK A01 T10171066  RH  069%=      5-min Rain = 0
KGO1 081330Z 00010KT M02/M07 A3029 RMK A01 T10171065  RH  070%=      5-min Rain = 0
KGO1 081331Z 36010KT M02/M07 A3029 RMK A01 T10171066  RH  069%=      5-min Rain = 0
KGO1 081332Z 36009KT M02/M07 A3029 RMK A01 T10171065  RH  069%=      5-min Rain = 0
KGO1 081333Z 36011KT M02/M07 A3029 RMK A01 T10171065  RH  070%=      5-min Rain = 0
KGO1 081334Z 36010KT M02/M07 A3029 RMK A01 T10171066  RH  069%=      5-min Rain = 0
KGO1 081335Z 00010KT M02/M07 A3029 RMK A01 T10171066  RH  070%=      5-min Rain = 0
KGO1 081336Z 00008KT M02/M07 A303 RMK A01 T10171066  RH  069%=      5-min Rain = 0
KGO1 081337Z 36008KT M02/M07 A303 RMK A01 T10171065  RH  070%=      5-min Rain = 0
KGO1 081338Z 36011KT M02/M07 A303 RMK A01 T10171066  RH  069%=      5-min Rain = 0
KGO1 081339Z 36010KT M02/M07 A303 RMK A01 T10171066  RH  069%=      5-min Rain = 0
KGO1 081340Z 35010KT M02/M07 A303 RMK A01 T10171066  RH  069%=      5-min Rain = 0
KGO1 081341Z 35010KT M02/M07 A303 RMK A01 T10171066  RH  069%=      5-min Rain = 0
KGO1 081342Z 36010KT M02/M07 A303 RMK A01 T10171067  RH  069%=      5-min Rain = 0
KGO1 081343Z 36010KT M02/M07 A303 RMK A01 T10171067  RH  069%=      5-min Rain = 0
KGO1 081344Z 36011KT M02/M07 A303 RMK A01 T10171067  RH  069%=      5-min Rain = 0
KGO1 081345Z 35010KT M02/M07 A303 RMK A01 T10171066  RH  069%=      5-min Rain = 0
KGO1 081346Z 35008KT M02/M07 A303 RMK A01 T10171066  RH  069%=      5-min Rain = 0
KGO1 081347Z 36010KT M02/M07 A303 RMK A01 T10171065  RH  070%=      5-min Rain = 0
KGO1 081348Z 36009KT M02/M07 A303 RMK A01 T10171066  RH  069%=      5-min Rain = 0
KGO1 081349Z 35009KT M02/M07 A303 RMK A01 T10171066  RH  069%=      5-min Rain = 0
KGO1 081350Z 35010KT M02/M07 A303 RMK A01 T10171066  RH  069%=      5-min Rain = 0
KGO1 081351Z 35009KT M02/M07 A303 RMK A01 T10171067  RH  069%=      5-min Rain = 0
KGO1 081352Z 35009KT M02/M07 A303 RMK A01 T10171068  RH  069%=      5-min Rain = 0
KGO1 081353Z 35009KT M02/M07 A303 RMK A01 T10171067  RH  069%=      5-min Rain = 0
KGO1 081354Z 36009KT M02/M07 A303 RMK A01 T10171068  RH  068%=      5-min Rain = 0
KGO1 081355Z 35011KT M02/M07 A303 RMK A01 T10171068  RH  068%=      5-min Rain = 0
KGO1 081356Z 36010KT M02/M07 A303 RMK A01 T10171069  RH  068%=      5-min Rain = 0
KGO1 081357Z 36009KT M02/M07 A303 RMK A01 T10171069  RH  067%=      5-min Rain = 0
KGO1 081358Z 36012KT M02/M07 A303 RMK A01 T10171068  RH  068%=      5-min Rain = 0
KGO1 081359Z 35011KT M02/M07 A303 RMK A01 T10171070  RH  067%=      5-min Rain = 0
KGO1 081400Z 35011KT M02/M07 A303 RMK A01 T10171069  RH  067%=      5-min Rain = 0
KGO1 081401Z 35011KT M02/M07 A303 RMK A01 T10171070  RH  067%=      5-min Rain = 0
KGO1 081402Z 36010KT M02/M07 A303 RMK A01 T10171070  RH  067%=      5-min Rain = 0
KGO1 081403Z 35011KT M02/M07 A303 RMK A01 T10171070  RH  067%=      5-min Rain = 0
KGO1 081404Z 35009KT M02/M07 A303 RMK A01 T10171069  RH  068%=      5-min Rain = 0
KGO1 081405Z 35009KT M02/M07 A303 RMK A01 T10171067  RH  069%=      5-min Rain = 0
KGO1 081406Z 35011KT M02/M07 A303 RMK A01 T10171068  RH  068%=      5-min Rain = 0
KGO1 081407Z 36010KT M02/M07 A303 RMK A01 T10171069  RH  067%=      5-min Rain = 0
KGO1 081408Z 35010KT M02/M07 A303 RMK A01 T10171070  RH  067%=      5-min Rain = 0
KGO1 081409Z 35011KT M02/M07 A303 RMK A01 T10171070  RH  067%=      5-min Rain = 0
KGO1 081410Z 36010KT M02/M07 A303 RMK A01 T10171071  RH  067%=      5-min Rain = 0
KGO1 081411Z 36012KT M02/M07 A303 RMK A01 T10171071  RH  067%=      5-min Rain = 0
KGO1 081412Z 36012KT M02/M07 A303 RMK A01 T10171074  RH  065%=      5-min Rain = 0
KGO1 081413Z 35012KT M02/M08 A3031 RMK A01 T10171075  RH  065%=      5-min Rain = 0
KGO1 081414Z 36011KT M02/M08 A3031 RMK A01 T10171076  RH  064%=      5-min Rain = 0
KGO1 081415Z 36010KT M02/M08 A3031 RMK A01 T10171076  RH  064%=      5-min Rain = 0
KGO1 081416Z 36011KT M02/M08 A3031 RMK A01 T10171076  RH  064%=      5-min Rain = 0
KGO1 081417Z 36010KT M02/M08 A3031 RMK A01 T10171076  RH  064%=      5-min Rain = 0
KGO1 081418Z 00010KT M02/M08 A3031 RMK A01 T10171075  RH  064%=      5-min Rain = 0
KGO1 081419Z 36009KT M02/M08 A3031 RMK A01 T10171076  RH  064%=      5-min Rain = 0
KGO1 081420Z 35008KT M02/M08 A3031 RMK A01 T10171076  RH  064%=      5-min Rain = 0
KGO1 081421Z 35009KT M02/M08 A3031 RMK A01 T10171075  RH  064%=      5-min Rain = 0
KGO1 081422Z 35008KT M02/M08 A3031 RMK A01 T10171075  RH  065%=      5-min Rain = 0
KGO1 081423Z 35008KT M02/M07 A3031 RMK A01 T10171074  RH  065%=      5-min Rain = 0
KGO1 081424Z 36009KT M02/M08 A3031 RMK A01 T10171075  RH  065%=      5-min Rain = 0
KGO1 081425Z 35009KT M02/M07 A3031 RMK A01 T10161074  RH  065%=      5-min Rain = 0
KGO1 081426Z 35009KT M02/M07 A3031 RMK A01 T10171074  RH  065%=      5-min Rain = 0
KGO1 081427Z 35009KT M02/M08 A3031 RMK A01 T10171075  RH  065%=      5-min Rain = 0
KGO1 081428Z 35010KT M02/M08 A3031 RMK A01 T10171075  RH  064%=      5-min Rain = 0
KGO1 081429Z 35008KT M02/M07 A3031 RMK A01 T10161074  RH  065%=      5-min Rain = 0
KGO1 081430Z 34008KT M02/M07 A3031 RMK A01 T10171074  RH  065%=      5-min Rain = 0
KGO1 081431Z 35008KT M02/M07 A3031 RMK A01 T10171074  RH  065%=      5-min Rain = 0
KGO1 081432Z 35008KT M02/M07 A3031 RMK A01 T10161073  RH  065%=      5-min Rain = 0
KGO1 081433Z 35008KT M02/M07 A3031 RMK A01 T10161072  RH  066%=      5-min Rain = 0
KGO1 081434Z 35008KT M02/M07 A3031 RMK A01 T10161073  RH  065%=      5-min Rain = 0
KGO1 081435Z 35008KT M02/M07 A3031 RMK A01 T10161074  RH  065%=      5-min Rain = 0
KGO1 081436Z 35009KT M02/M08 A3031 RMK A01 T10161075  RH  064%=      5-min Rain = 0
KGO1 081437Z 36011KT M02/M08 A3031 RMK A01 T10161076  RH  063%=      5-min Rain = 0
KGO1 081438Z 36010KT M02/M08 A3031 RMK A01 T10151077  RH  063%=      5-min Rain = 0
KGO1 081439Z 35010KT M02/M08 A3031 RMK A01 T10161079  RH  062%=      5-min Rain = 0
KGO1 081440Z 35008KT M02/M08 A3031 RMK A01 T10161079  RH  062%=      5-min Rain = 0
KGO1 081441Z 35010KT M02/M08 A3031 RMK A01 T10161077  RH  063%=      5-min Rain = 0
KGO1 081442Z 35011KT M02/M08 A3031 RMK A01 T10161078  RH  063%=      5-min Rain = 0
KGO1 081443Z 35011KT M02/M08 A3032 RMK A01 T10161079  RH  062%=      5-min Rain = 0
KGO1 081444Z 35010KT M02/M08 A3032 RMK A01 T10151079  RH  062%=      5-min Rain = 0
KGO1 081445Z 36008KT M02/M08 A3032 RMK A01 T10161078  RH  062%=      5-min Rain = 0
KGO1 081446Z 35009KT M02/M08 A3032 RMK A01 T10151076  RH  063%=      5-min Rain = 0
KGO1 081447Z 36008KT M02/M08 A3032 RMK A01 T10161076  RH  063%=      5-min Rain = 0
KGO1 081448Z 36009KT M02/M08 A3032 RMK A01 T10151076  RH  063%=      5-min Rain = 0
KGO1 081449Z 35009KT M02/M08 A3032 RMK A01 T10151076  RH  063%=      5-min Rain = 0
KGO1 081450Z 36008KT M02/M08 A3032 RMK A01 T10151075  RH  064%=      5-min Rain = 0
KGO1 081451Z 35009KT M02/M08 A3032 RMK A01 T10151075  RH  064%=      5-min Rain = 0
KGO1 081452Z 35008KT M02/M08 A3032 RMK A01 T10151075  RH  063%=      5-min Rain = 0
KGO1 081453Z 35010KT M02/M08 A3032 RMK A01 T10151076  RH  063%=      5-min Rain = 0
KGO1 081454Z 35008KT M02/M08 A3032 RMK A01 T10151075  RH  063%=      5-min Rain = 0
KGO1 081455Z 35009KT M01/M07 A3032 RMK A01 T10141073  RH  064%=      5-min Rain = 0
KGO1 081456Z 35009KT M01/M08 A3032 RMK A01 T10141075  RH  064%=      5-min Rain = 0
KGO1 081457Z 35008KT M01/M08 A3032 RMK A01 T10141075  RH  063%=      5-min Rain = 0
KGO1 081458Z 35009KT M01/M07 A3032 RMK A01 T10141074  RH  064%=      5-min Rain = 0
KGO1 081459Z 35009KT M01/M07 A3032 RMK A01 T10141074  RH  064%=      5-min Rain = 0
KGO1 081500Z 35009KT M01/M08 A3032 RMK A01 T10141075  RH  063%=      5-min Rain = 0
KGO1 081501Z 35009KT M01/M07 A3032 RMK A01 T10141073  RH  064%=      5-min Rain = 0
KGO1 081502Z 34010KT M01/M07 A3032 RMK A01 T10131074  RH  063%=      5-min Rain = 0
KGO1 081503Z 35010KT M01/M08 A3032 RMK A01 T10131075  RH  063%=      5-min Rain = 0
KGO1 081504Z 35010KT M01/M08 A3032 RMK A01 T10131075  RH  063%=      5-min Rain = 0
KGO1 081505Z 35011KT M01/M08 A3032 RMK A01 T10141075  RH  063%=      5-min Rain = 0
KGO1 081506Z 35012KT M01/M08 A3032 RMK A01 T10141076  RH  063%=      5-min Rain = 0
KGO1 081507Z 35011KT M01/M08 A3032 RMK A01 T10131076  RH  062%=      5-min Rain = 0
KGO1 081508Z 34009KT M01/M08 A3032 RMK A01 T10141075  RH  063%=      5-min Rain = 0
KGO1 081509Z 34011KT M01/M07 A3032 RMK A01 T10141074  RH  064%=      5-min Rain = 0
KGO1 081510Z 35009KT M01/M08 A3032 RMK A01 T10141075  RH  063%=      5-min Rain = 0
KGO1 081511Z 34011KT M01/M08 A3032 RMK A01 T10141075  RH  063%=      5-min Rain = 0
KGO1 081512Z 34011KT M01/M08 A3032 RMK A01 T10141075  RH  063%=      5-min Rain = 0
KGO1 081513Z 35010KT M01/M07 A3033 RMK A01 T10141074  RH  064%=      5-min Rain = 0
KGO1 081514Z 36011KT M01/M07 A3033 RMK A01 T10141073  RH  064%=      5-min Rain = 0
KGO1 081515Z 36010KT M01/M07 A3033 RMK A01 T10141073  RH  064%=      5-min Rain = 0
KGO1 081516Z 35009KT M01/M07 A3033 RMK A01 T10131071  RH  065%=      5-min Rain = 0
KGO1 081517Z 35011KT M01/M07 A3033 RMK A01 T10131070  RH  065%=      5-min Rain = 0
KGO1 081518Z 35010KT M01/M07 A3033 RMK A01 T10131073  RH  064%=      5-min Rain = 0
KGO1 081519Z 36010KT M01/M07 A3033 RMK A01 T10131072  RH  064%=      5-min Rain = 0
KGO1 081520Z 36013KT M01/M08 A3033 RMK A01 T10121075  RH  062%=      5-min Rain = 0
KGO1 081521Z 36012KT M01/M08 A3033 RMK A01 T10121079  RH  060%=      5-min Rain = 0
KGO1 081522Z 35012KT M01/M08 A3033 RMK A01 T10121079  RH  060%=      5-min Rain = 0
KGO1 081523Z 36012KT M01/M08 A3033 RMK A01 T10121080  RH  060%=      5-min Rain = 0
KGO1 081524Z 35012KT M01/M08 A3033 RMK A01 T10121079  RH  060%=      5-min Rain = 0
KGO1 081525Z 35010KT M01/M08 A3033 RMK A01 T10121080  RH  060%=      5-min Rain = 0
KGO1 081526Z 35012KT M01/M08 A3033 RMK A01 T10121080  RH  060%=      5-min Rain = 0
KGO1 081527Z 35010KT M01/M08 A3033 RMK A01 T10121082  RH  059%=      5-min Rain = 0
KGO1 081528Z 35011KT M01/M08 A3033 RMK A01 T10111082  RH  059%=      5-min Rain = 0
KGO1 081529Z 35011KT M01/M08 A3033 RMK A01 T10111084  RH  058%=      5-min Rain = 0
KGO1 081530Z 35012KT M01/M09 A3033 RMK A01 T10111086  RH  057%=      5-min Rain = 0
KGO1 081531Z 35012KT M01/M09 A3033 RMK A01 T10101086  RH  057%=      5-min Rain = 0
KGO1 081532Z 35011KT M01/M09 A3033 RMK A01 T10111086  RH  057%=      5-min Rain = 0
KGO1 081533Z 35012KT M01/M09 A3033 RMK A01 T10111086  RH  056%=      5-min Rain = 0
KGO1 081534Z 35011KT M01/M09 A3033 RMK A01 T10111088  RH  056%=      5-min Rain = 0
KGO1 081535Z 35011KT M01/M09 A3033 RMK A01 T10111088  RH  056%=      5-min Rain = 0
KGO1 081536Z 35011KT M01/M09 A3033 RMK A01 T10111088  RH  056%=      5-min Rain = 0
KGO1 081537Z 35010KT M01/M09 A3033 RMK A01 T10101085  RH  057%=      5-min Rain = 0
KGO1 081538Z 35011KT M01/M09 A3033 RMK A01 T10101085  RH  057%=      5-min Rain = 0
KGO1 081539Z 35011KT M01/M09 A3033 RMK A01 T10091085  RH  056%=      5-min Rain = 0
KGO1 081540Z 34011KT M01/M09 A3033 RMK A01 T10091087  RH  055%=      5-min Rain = 0
KGO1 081541Z 35014KT M01/M09 A3033 RMK A01 T10091090  RH  054%=      5-min Rain = 0
KGO1 081542Z 35013KT M01/M09 A3033 RMK A01 T10091091  RH  054%=      5-min Rain = 0
KGO1 081543Z 35013KT M01/M09 A3033 RMK A01 T10101091  RH  054%=      5-min Rain = 0
KGO1 081544Z 35012KT M01/M09 A3033 RMK A01 T10101090  RH  055%=      5-min Rain = 0
KGO1 081545Z 35013KT M01/M09 A3033 RMK A01 T10101090  RH  055%=      5-min Rain = 0
KGO1 081546Z 35014KT M01/M09 A3033 RMK A01 T10101091  RH  054%=      5-min Rain = 0
KGO1 081547Z 35013KT M01/M09 A3033 RMK A01 T10101090  RH  054%=      5-min Rain = 0
KGO1 081548Z 35011KT M01/M09 A3033 RMK A01 T10101088  RH  055%=      5-min Rain = 0
KGO1 081549Z 35010KT M01/M09 A3033 RMK A01 T10101085  RH  057%=      5-min Rain = 0
KGO1 081550Z 34012KT M01/M09 A3033 RMK A01 T10091085  RH  056%=      5-min Rain = 0
KGO1 081551Z 35012KT M01/M09 A3033 RMK A01 T10091086  RH  056%=      5-min Rain = 0
KGO1 081552Z 35012KT M01/M09 A3033 RMK A01 T10091087  RH  055%=      5-min Rain = 0
KGO1 081553Z 35012KT M01/M09 A3033 RMK A01 T10091088  RH  055%=      5-min Rain = 0
KGO1 081554Z 34011KT M01/M09 A3033 RMK A01 T10091087  RH  055%=      5-min Rain = 0
KGO1 081555Z 35011KT M01/M09 A3033 RMK A01 T10081086  RH  056%=      5-min Rain = 0
KGO1 081556Z 35010KT M01/M09 A3033 RMK A01 T10091086  RH  056%=      5-min Rain = 0
KGO1 081557Z 35012KT M01/M09 A3033 RMK A01 T10081085  RH  056%=      5-min Rain = 0
KGO1 081558Z 35011KT M01/M09 A3033 RMK A01 T10081085  RH  056%=      5-min Rain = 0
KGO1 081559Z 35012KT M01/M09 A3033 RMK A01 T10081087  RH  055%=      5-min Rain = 0
KGO1 081600Z 35013KT M01/M09 A3033 RMK A01 T10091089  RH  055%=      5-min Rain = 0
KGO1 081601Z 35013KT M01/M09 A3033 RMK A01 T10091088  RH  055%=      5-min Rain = 0
KGO1 081602Z 35011KT M01/M09 A3033 RMK A01 T10091088  RH  055%=      5-min Rain = 0
KGO1 081603Z 35010KT M01/M09 A3033 RMK A01 T10091087  RH  056%=      5-min Rain = 0
KGO1 081604Z 35011KT M01/M09 A3033 RMK A01 T10091085  RH  056%=      5-min Rain = 0
KGO1 081605Z 35012KT M01/M09 A3032 RMK A01 T10081085  RH  056%=      5-min Rain = 0
KGO1 081606Z 35011KT M01/M09 A3033 RMK A01 T10081086  RH  055%=      5-min Rain = 0
KGO1 081607Z 35010KT M01/M09 A3032 RMK A01 T10081087  RH  055%=      5-min Rain = 0
KGO1 081608Z 36011KT M01/M09 A3033 RMK A01 T10071088  RH  055%=      5-min Rain = 0
KGO1 081609Z 35011KT M01/M09 A3033 RMK A01 T10071089  RH  054%=      5-min Rain = 0
KGO1 081610Z 35011KT M01/M09 A3033 RMK A01 T10071087  RH  055%=      5-min Rain = 0
KGO1 081611Z 35012KT M01/M09 A3033 RMK A01 T10071086  RH  055%=      5-min Rain = 0
KGO1 081612Z 35011KT M01/M09 A3033 RMK A01 T10071087  RH  055%=      5-min Rain = 0
KGO1 081613Z 35009KT M01/M09 A3033 RMK A01 T10061086  RH  055%=      5-min Rain = 0
KGO1 081614Z 35011KT M01/M08 A3033 RMK A01 T10061083  RH  056%=      5-min Rain = 0
KGO1 081615Z 35012KT M00/M08 A3033 RMK A01 T10041083  RH  055%=      5-min Rain = 0
KGO1 081616Z 35011KT M00/M09 A3033 RMK A01 T10041085  RH  055%=      5-min Rain = 0
KGO1 081617Z 34011KT M00/M09 A3033 RMK A01 T10041085  RH  054%=      5-min Rain = 0
KGO1 081618Z 34012KT M00/M09 A3033 RMK A01 T10041086  RH  054%=      5-min Rain = 0
KGO1 081619Z 35012KT M00/M09 A3033 RMK A01 T10041087  RH  054%=      5-min Rain = 0
KGO1 081620Z 35010KT M00/M09 A3033 RMK A01 T10041088  RH  053%=      5-min Rain = 0
KGO1 081621Z 35009KT M00/M09 A3033 RMK A01 T10041087  RH  054%=      5-min Rain = 0
KGO1 081622Z 35009G14KT M00/M09 A3033 RMK A01 T10041086  RH  054%=      5-min Rain = 0
KGO1 081623Z 35011KT M00/M08 A3033 RMK A01 T10021084  RH  054%=      5-min Rain = 0
KGO1 081624Z 34012KT M00/M09 A3033 RMK A01 T10021088  RH  052%=      5-min Rain = 0
KGO1 081625Z 35011KT M00/M09 A3033 RMK A01 T10021091  RH  051%=      5-min Rain = 0
KGO1 081626Z 35010KT M00/M09 A3033 RMK A01 T10031091  RH  052%=      5-min Rain = 0
KGO1 081627Z 35010KT M00/M09 A3033 RMK A01 T10031089  RH  052%=      5-min Rain = 0
KGO1 081628Z 35010KT M00/M09 A3033 RMK A01 T10021087  RH  053%=      5-min Rain = 0
KGO1 081629Z 35011KT M00/M09 A3033 RMK A01 T10021086  RH  053%=      5-min Rain = 0
KGO1 081630Z 35011KT M00/M09 A3033 RMK A01 T10011087  RH  052%=      5-min Rain = 0
KGO1 081631Z 00010KT M00/M09 A3033 RMK A01 T10021089  RH  052%=      5-min Rain = 0
KGO1 081632Z 35010KT M00/M09 A3033 RMK A01 T10021089  RH  052%=      5-min Rain = 0
KGO1 081633Z 35010KT M00/M09 A3033 RMK A01 T10011088  RH  052%=      5-min Rain = 0
KGO1 081634Z 35011KT 00/09 A3033 RMK A01 T00-00-87  RH  052%=      5-min Rain = 0
KGO1 081635Z 35009KT 00/09 A3033 RMK A01 T00000-87  RH  052%=      5-min Rain = 0
KGO1 081636Z 36010KT 00/M09 A3033 RMK A01 T00011086  RH  052%=      5-min Rain = 0
KGO1 081637Z 35012KT 00/M09 A3033 RMK A01 T00011089  RH  051%=      5-min Rain = 0
KGO1 081638Z 35010KT 00/M09 A3033 RMK A01 T00011090  RH  050%=      5-min Rain = 0
KGO1 081639Z 35010KT 00/M09 A3033 RMK A01 T00011089  RH  051%=      5-min Rain = 0
KGO1 081640Z 35009KT 00/M09 A3033 RMK A01 T00021089  RH  051%=      5-min Rain = 0
KGO1 081641Z 01009KT 00/M09 A3033 RMK A01 T00021087  RH  051%=      5-min Rain = 0
KGO1 081642Z 00010KT 00/M09 A3033 RMK A01 T00031087  RH  051%=      5-min Rain = 0
KGO1 081643Z 00011KT 00/M09 A3033 RMK A01 T00031091  RH  049%=      5-min Rain = 0
KGO1 081644Z 00011KT 00/M09 A3033 RMK A01 T00021092  RH  049%=      5-min Rain = 0
KGO1 081645Z 01011KT 00/M09 A3033 RMK A01 T00021093  RH  049%=      5-min Rain = 0
KGO1 081646Z 00008KT 00/M09 A3033 RMK A01 T00021093  RH  049%=      5-min Rain = 0
KGO1 081647Z 35009KT 00/M09 A3033 RMK A01 T00041088  RH  050%=      5-min Rain = 0
KGO1 081648Z 35010KT 01/M09 A3033 RMK A01 T00061086  RH  050%=      5-min Rain = 0
KGO1 081649Z 35010KT 01/M09 A3033 RMK A01 T00061086  RH  050%=      5-min Rain = 0
KGO1 081650Z 36009KT 01/M09 A3033 RMK A01 T00071088  RH  049%=      5-min Rain = 0
KGO1 081651Z 36010KT 01/M09 A3033 RMK A01 T00061088  RH  049%=      5-min Rain = 0
KGO1 081652Z 01010KT 01/M09 A3033 RMK A01 T00061093  RH  047%=      5-min Rain = 0
KGO1 081653Z 00010KT 01/M10 A3033 RMK A01 T00051096  RH  047%=      5-min Rain = 0
KGO1 081654Z 00010KT 00/M10 A3033 RMK A01 T00041097  RH  047%=      5-min Rain = 0
KGO1 081655Z 01010KT 00/M09 A3033 RMK A01 T00031093  RH  048%=      5-min Rain = 0
KGO1 081656Z 01010KT 00/M09 A3033 RMK A01 T00041091  RH  049%=      5-min Rain = 0
KGO1 081657Z 00011KT 01/M09 A3033 RMK A01 T00051094  RH  047%=      5-min Rain = 0
KGO1 081658Z 00008KT 00/M09 A3033 RMK A01 T00041094  RH  048%=      5-min Rain = 0
KGO1 081659Z 00009KT 00/M09 A3033 RMK A01 T00041090  RH  049%=      5-min Rain = 0
KGO1 081700Z 01008KT 01/M09 A3033 RMK A01 T00051090  RH  049%=      5-min Rain = 0
KGO1 081701Z 01010KT 01/M09 A3033 RMK A01 T00061089  RH  049%=      5-min Rain = 0
KGO1 081702Z 35009KT 01/M09 A3033 RMK A01 T00061093  RH  047%=      5-min Rain = 0
KGO1 081703Z 01010KT 01/M09 A3033 RMK A01 T00061093  RH  047%=      5-min Rain = 0
KGO1 081704Z 36009KT 01/M09 A3033 RMK A01 T00051093  RH  048%=      5-min Rain = 0
KGO1 081705Z 00009KT 01/M09 A3033 RMK A01 T00061093  RH  048%=      5-min Rain = 0
KGO1 081706Z 36009KT 01/M09 A3033 RMK A01 T00051094  RH  047%=      5-min Rain = 0
KGO1 081707Z 01007KT 01/M09 A3033 RMK A01 T00061092  RH  048%=      5-min Rain = 0
KGO1 081708Z 35010KT 01/M09 A3033 RMK A01 T00071089  RH  049%=      5-min Rain = 0
KGO1 081709Z 00010KT 01/M09 A3033 RMK A01 T00071091  RH  048%=      5-min Rain = 0
KGO1 081710Z 01009KT 01/M09 A3033 RMK A01 T00071091  RH  048%=      5-min Rain = 0
KGO1 081711Z 01009KT 01/M09 A3033 RMK A01 T00061094  RH  047%=      5-min Rain = 0
KGO1 081712Z 01008KT 01/M09 A3033 RMK A01 T00061093  RH  047%=      5-min Rain = 0
KGO1 081713Z 01007KT 01/M09 A3033 RMK A01 T00061093  RH  047%=      5-min Rain = 0
KGO1 081714Z 01008KT 01/M09 A3033 RMK A01 T00081088  RH  049%=      5-min Rain = 0
KGO1 081715Z 01009KT 01/M08 A3033 RMK A01 T00091084  RH  050%=      5-min Rain = 0
KGO1 081716Z 02009KT 01/M09 A3033 RMK A01 T00101090  RH  047%=      5-min Rain = 0
KGO1 081717Z 00009KT 01/M09 A3033 RMK A01 T00081090  RH  048%=      5-min Rain = 0
KGO1 081718Z 36008KT 01/M09 A3033 RMK A01 T00081091  RH  048%=      5-min Rain = 0
KGO1 081719Z 01009KT 01/M09 A3033 RMK A01 T00081089  RH  048%=      5-min Rain = 0
KGO1 081720Z 00009KT 01/M09 A3033 RMK A01 T00081092  RH  047%=      5-min Rain = 0
KGO1 081721Z 36008KT 01/M09 A3033 RMK A01 T00081090  RH  048%=      5-min Rain = 0
KGO1 081722Z 36009KT 01/M09 A3033 RMK A01 T00081090  RH  048%=      5-min Rain = 0
KGO1 081723Z 00009KT 01/M09 A3033 RMK A01 T00081091  RH  048%=      5-min Rain = 0
KGO1 081724Z 00010KT 01/M09 A3033 RMK A01 T00081093  RH  047%=      5-min Rain = 0
KGO1 081725Z 00008KT 01/M09 A3033 RMK A01 T00091092  RH  047%=      5-min Rain = 0
KGO1 081726Z 01010KT 01/M09 A3033 RMK A01 T00091092  RH  047%=      5-min Rain = 0
KGO1 081727Z 01008KT 01/M09 A3033 RMK A01 T00081093  RH  047%=      5-min Rain = 0
KGO1 081728Z 35007KT 01/M09 A3033 RMK A01 T00081094  RH  046%=      5-min Rain = 0
KGO1 081729Z 35007KT 01/M09 A3033 RMK A01 T00081093  RH  047%=      5-min Rain = 0
KGO1 081730Z 35007KT 01/M09 A3033 RMK A01 T00091093  RH  047%=      5-min Rain = 0
KGO1 081731Z 00008KT 01/M09 A3033 RMK A01 T00091092  RH  047%=      5-min Rain = 0
KGO1 081732Z 02008KT 01/M09 A3033 RMK A01 T00091091  RH  047%=      5-min Rain = 0
KGO1 081733Z 02009KT 01/M09 A3033 RMK A01 T00101088  RH  048%=      5-min Rain = 0
KGO1 081734Z 01008KT 01/M09 A3033 RMK A01 T00111092  RH  046%=      5-min Rain = 0
KGO1 081735Z 01008KT 01/M09 A3033 RMK A01 T00101094  RH  046%=      5-min Rain = 0
KGO1 081736Z 01007KT 01/M09 A3033 RMK A01 T00101093  RH  046%=      5-min Rain = 0
KGO1 081737Z 00006KT 01/M09 A3033 RMK A01 T00101090  RH  047%=      5-min Rain = 0
KGO1 081738Z 36005KT 01/M09 A3033 RMK A01 T00111087  RH  048%=      5-min Rain = 0
KGO1 081739Z 00006KT 01/M09 A3033 RMK A01 T00121087  RH  047%=      5-min Rain = 0
KGO1 081740Z 00007KT 01/M09 A3033 RMK A01 T00121090  RH  047%=      5-min Rain = 0
KGO1 081741Z 01008KT 01/M09 A3033 RMK A01 T00121089  RH  047%=      5-min Rain = 0
KGO1 081742Z 02007KT 01/M09 A3033 RMK A01 T00121090  RH  047%=      5-min Rain = 0
KGO1 081743Z 01007KT 01/M09 A3033 RMK A01 T00111091  RH  046%=      5-min Rain = 0
KGO1 081744Z 02008KT 01/M09 A3033 RMK A01 T00111090  RH  047%=      5-min Rain = 0
KGO1 081745Z 02008KT 01/M09 A3033 RMK A01 T00121090  RH  047%=      5-min Rain = 0
KGO1 081746Z 02006KT 01/M09 A3033 RMK A01 T00111090  RH  047%=      5-min Rain = 0
KGO1 081747Z 02007KT 01/M09 A3033 RMK A01 T00121091  RH  046%=      5-min Rain = 0
KGO1 081748Z 02008KT 01/M09 A3033 RMK A01 T00111091  RH  046%=      5-min Rain = 0
KGO1 081749Z 02008KT 01/M09 A3033 RMK A01 T00111092  RH  046%=      5-min Rain = 0
KGO1 081750Z 02006KT 01/M09 A3033 RMK A01 T00101091  RH  047%=      5-min Rain = 0
KGO1 081751Z 03004KT 01/M09 A3033 RMK A01 T00111090  RH  047%=      5-min Rain = 0
KGO1 081752Z 02005KT 01/M09 A3033 RMK A01 T00121088  RH  047%=      5-min Rain = 0
KGO1 081753Z 01006KT 01/M09 A3032 RMK A01 T00131088  RH  047%=      5-min Rain = 0
KGO1 081754Z 01008KT 01/M09 A3032 RMK A01 T00131087  RH  047%=      5-min Rain = 0
KGO1 081755Z 35007KT 01/M09 A3032 RMK A01 T00131091  RH  046%=      5-min Rain = 0
KGO1 081756Z 36008KT 01/M09 A3032 RMK A01 T00121092  RH  046%=      5-min Rain = 0
KGO1 081757Z 01006KT 01/M09 A3032 RMK A01 T00111091  RH  046%=      5-min Rain = 0
KGO1 081758Z 00005KT 01/M09 A3032 RMK A01 T00121090  RH  046%=      5-min Rain = 0
KGO1 081759Z 01005KT 01/M09 A3032 RMK A01 T00131093  RH  045%=      5-min Rain = 0
KGO1 081800Z 02007KT 01/M09 A3032 RMK A01 T00121090  RH  046%=      5-min Rain = 0
KGO1 081801Z 02006KT 01/M09 A3032 RMK A01 T00141088  RH  047%=      5-min Rain = 0
KGO1 081802Z 01005KT 02/M08 A3032 RMK A01 T00151084  RH  048%=      5-min Rain = 0
KGO1 081803Z 02005KT 02/M08 A3032 RMK A01 T00171082  RH  048%=      5-min Rain = 0
KGO1 081804Z 00004KT 02/M09 A3032 RMK A01 T00181087  RH  046%=      5-min Rain = 0
KGO1 081805Z 01004KT 02/M09 A3032 RMK A01 T00161091  RH  045%=      5-min Rain = 0
KGO1 081806Z 03005KT 02/M09 A3032 RMK A01 T00161087  RH  046%=      5-min Rain = 0
KGO1 081807Z 04006KT 02/M09 A3031 RMK A01 T00171086  RH  046%=      5-min Rain = 0
KGO1 081808Z 03007KT 02/M09 A3031 RMK A01 T00171086  RH  046%=      5-min Rain = 0
KGO1 081809Z 03006KT 02/M08 A3031 RMK A01 T00191082  RH  047%=      5-min Rain = 0
KGO1 081810Z 02007KT 02/M09 A3031 RMK A01 T00191087  RH  045%=      5-min Rain = 0
KGO1 081811Z 02006KT 02/M09 A3031 RMK A01 T00171086  RH  046%=      5-min Rain = 0
KGO1 081812Z 02005KT 02/M09 A3031 RMK A01 T00171086  RH  047%=      5-min Rain = 0
KGO1 081813Z 02006KT 02/M08 A3031 RMK A01 T00171083  RH  047%=      5-min Rain = 0
KGO1 081814Z 03007KT 02/M09 A3031 RMK A01 T00181086  RH  046%=      5-min Rain = 0
KGO1 081815Z 03007KT 02/M09 A3031 RMK A01 T00181086  RH  046%=      5-min Rain = 0
KGO1 081816Z 03006KT 02/M09 A3031 RMK A01 T00171088  RH  046%=      5-min Rain = 0
KGO1 081817Z 03007KT 02/M09 A3031 RMK A01 T00161090  RH  045%=      5-min Rain = 0
KGO1 081818Z 36007KT 02/M09 A3031 RMK A01 T00161088  RH  046%=      5-min Rain = 0
KGO1 081819Z 35007KT 02/M09 A303 RMK A01 T00161088  RH  046%=      5-min Rain = 0
KGO1 081820Z 36006KT 02/M09 A303 RMK A01 T00161088  RH  046%=      5-min Rain = 0
KGO1 081821Z 01005KT 02/M08 A303 RMK A01 T00161084  RH  047%=      5-min Rain = 0
KGO1 081822Z 02005KT 02/M08 A303 RMK A01 T00191081  RH  047%=      5-min Rain = 0
KGO1 081823Z 03007KT 02/M09 A303 RMK A01 T00201086  RH  045%=      5-min Rain = 0
KGO1 081824Z 03007KT 02/M09 A303 RMK A01 T00191088  RH  045%=      5-min Rain = 0
KGO1 081825Z 03006KT 02/M09 A303 RMK A01 T00181089  RH  045%=      5-min Rain = 0
KGO1 081826Z 02006KT 02/M09 A303 RMK A01 T00181089  RH  045%=      5-min Rain = 0
KGO1 081827Z 02007KT 02/M09 A303 RMK A01 T00181088  RH  045%=      5-min Rain = 0
KGO1 081828Z 02005KT 02/M09 A303 RMK A01 T00181088  RH  045%=      5-min Rain = 0
KGO1 081829Z 02004KT 02/M09 A303 RMK A01 T00181089  RH  045%=      5-min Rain = 0
KGO1 081830Z 04006KT 02/M09 A303 RMK A01 T00181090  RH  045%=      5-min Rain = 0
KGO1 081831Z 04006KT 02/M09 A303 RMK A01 T00181086  RH  046%=      5-min Rain = 0
KGO1 081832Z 02007KT 02/M09 A303 RMK A01 T00181090  RH  044%=      5-min Rain = 0
KGO1 081833Z 01004KT 02/M09 A303 RMK A01 T00171090  RH  045%=      5-min Rain = 0
KGO1 081834Z 04004KT 02/M09 A303 RMK A01 T00171087  RH  046%=      5-min Rain = 0
KGO1 081835Z 02006KT 02/M09 A303 RMK A01 T00181087  RH  046%=      5-min Rain = 0
KGO1 081836Z 01006KT 02/M09 A303 RMK A01 T00181089  RH  045%=      5-min Rain = 0
KGO1 081837Z 02005KT 02/M09 A303 RMK A01 T00171091  RH  045%=      5-min Rain = 0
KGO1 081838Z 02004KT 02/M09 A303 RMK A01 T00161090  RH  045%=      5-min Rain = 0
KGO1 081839Z 02004KT 02/M09 A303 RMK A01 T00161090  RH  045%=      5-min Rain = 0
KGO1 081840Z 00005KT 02/M09 A303 RMK A01 T00171085  RH  047%=      5-min Rain = 0
KGO1 081841Z 00005KT 02/M08 A303 RMK A01 T00191083  RH  047%=      5-min Rain = 0
KGO1 081842Z 36007KT 02/M08 A303 RMK A01 T00201083  RH  047%=      5-min Rain = 0
KGO1 081843Z 35008KT 02/M09 A303 RMK A01 T00191088  RH  045%=      5-min Rain = 0
KGO1 081844Z 35007KT 02/M09 A303 RMK A01 T00181089  RH  045%=      5-min Rain = 0
KGO1 081845Z 35006KT 02/M09 A303 RMK A01 T00171089  RH  045%=      5-min Rain = 0
KGO1 081846Z 35007KT 02/M09 A303 RMK A01 T00171090  RH  045%=      5-min Rain = 0
KGO1 081847Z 35006KT 02/M09 A3029 RMK A01 T00171088  RH  045%=      5-min Rain = 0
KGO1 081848Z 35005KT 02/M09 A3029 RMK A01 T00171089  RH  045%=      5-min Rain = 0
KGO1 081849Z 36006KT 02/M09 A3029 RMK A01 T00181087  RH  046%=      5-min Rain = 0
KGO1 081850Z 01007KT 02/M09 A3029 RMK A01 T00191085  RH  046%=      5-min Rain = 0
KGO1 081851Z 01007KT 02/M09 A3029 RMK A01 T00191088  RH  045%=      5-min Rain = 0
KGO1 081852Z 01005KT 02/M09 A3029 RMK A01 T00191090  RH  044%=      5-min Rain = 0
KGO1 081853Z 02008KT 02/M09 A3029 RMK A01 T00191091  RH  044%=      5-min Rain = 0
KGO1 081854Z 02007KT 02/M09 A3029 RMK A01 T00191087  RH  045%=      5-min Rain = 0
KGO1 081855Z 01008KT 02/M09 A3029 RMK A01 T00201087  RH  045%=      5-min Rain = 0
KGO1 081856Z 36007KT 02/M09 A3029 RMK A01 T00191090  RH  044%=      5-min Rain = 0
KGO1 081857Z 36006KT 02/M09 A3029 RMK A01 T00181089  RH  045%=      5-min Rain = 0
KGO1 081858Z 36007KT 02/M09 A3029 RMK A01 T00181091  RH  044%=      5-min Rain = 0
KGO1 081859Z 02006KT 02/M09 A3029 RMK A01 T00181091  RH  044%=      5-min Rain = 0
KGO1 081900Z 01005KT 02/M09 A3029 RMK A01 T00181090  RH  045%=      5-min Rain = 0
KGO1 081901Z 36004KT 02/M09 A3029 RMK A01 T00181093  RH  044%=      5-min Rain = 0
KGO1 081902Z 02005KT 02/M09 A3029 RMK A01 T00171089  RH  045%=      5-min Rain = 0
KGO1 081903Z 03007KT 02/M09 A3029 RMK A01 T00191087  RH  045%=      5-min Rain = 0
KGO1 081904Z 03006KT 02/M09 A3029 RMK A01 T00191090  RH  044%=      5-min Rain = 0
KGO1 081905Z 03006KT 02/M09 A3029 RMK A01 T00181091  RH  044%=      5-min Rain = 0
KGO1 081906Z 02007KT 02/M09 A3029 RMK A01 T00171090  RH  045%=      5-min Rain = 0
KGO1 081907Z 01007KT 02/M09 A3029 RMK A01 T00171087  RH  046%=      5-min Rain = 0
KGO1 081908Z 00007KT 02/M08 A3029 RMK A01 T00181084  RH  047%=      5-min Rain = 0
KGO1 081909Z 02006KT 02/M09 A3029 RMK A01 T00181086  RH  046%=      5-min Rain = 0
KGO1 081910Z 02005KT 02/M09 A3029 RMK A01 T00181088  RH  045%=      5-min Rain = 0
KGO1 081911Z 00006KT 02/M09 A3029 RMK A01 T00181088  RH  045%=      5-min Rain = 0
KGO1 081912Z 02006KT 02/M09 A3029 RMK A01 T00181086  RH  046%=      5-min Rain = 0
KGO1 081913Z 03006KT 02/M09 A3029 RMK A01 T00191087  RH  045%=      5-min Rain = 0
KGO1 081914Z 03007KT 02/M09 A3029 RMK A01 T00191085  RH  046%=      5-min Rain = 0
KGO1 081915Z 02007KT 02/M09 A3029 RMK A01 T00201085  RH  046%=      5-min Rain = 0
KGO1 081916Z 01006KT 02/M09 A3029 RMK A01 T00211086  RH  045%=      5-min Rain = 0
KGO1 081917Z 35007KT 02/M09 A3029 RMK A01 T00211086  RH  045%=      5-min Rain = 0
KGO1 081918Z 00007KT 02/M09 A3029 RMK A01 T00211087  RH  045%=      5-min Rain = 0
KGO1 081919Z 36007KT 02/M09 A3029 RMK A01 T00211088  RH  044%=      5-min Rain = 0
KGO1 081920Z 36007KT 02/M09 A3029 RMK A01 T00211090  RH  044%=      5-min Rain = 0
KGO1 081921Z 35007KT 02/M09 A3029 RMK A01 T00211086  RH  045%=      5-min Rain = 0
KGO1 081922Z 35006KT 02/M09 A3029 RMK A01 T00211088  RH  044%=      5-min Rain = 0
KGO1 081923Z 00007KT 02/M09 A3029 RMK A01 T00221085  RH  045%=      5-min Rain = 0
KGO1 081924Z 01006KT 02/M09 A3029 RMK A01 T00221088  RH  044%=      5-min Rain = 0
KGO1 081925Z 35006KT 02/M09 A3029 RMK A01 T00221087  RH  044%=      5-min Rain = 0
KGO1 081926Z 35004KT 02/M09 A3028 RMK A01 T00221088  RH  044%=      5-min Rain = 0
KGO1 081927Z 00006KT 02/M09 A3028 RMK A01 T00221087  RH  044%=      5-min Rain = 0
KGO1 081928Z 36007KT 02/M09 A3028 RMK A01 T00231086  RH  045%=      5-min Rain = 0
KGO1 081929Z 00007KT 02/M09 A3028 RMK A01 T00231087  RH  044%=      5-min Rain = 0
KGO1 081930Z 35007KT 02/M09 A3028 RMK A01 T00231085  RH  045%=      5-min Rain = 0
KGO1 081931Z 35007KT 02/M09 A3028 RMK A01 T00231085  RH  045%=      5-min Rain = 0
KGO1 081932Z 35007KT 02/M09 A3028 RMK A01 T00231085  RH  045%=      5-min Rain = 0
KGO1 081933Z 36005KT 02/M09 A3028 RMK A01 T00231086  RH  045%=      5-min Rain = 0
KGO1 081934Z 00005KT 02/M09 A3028 RMK A01 T00221090  RH  044%=      5-min Rain = 0
KGO1 081935Z 34005KT 02/M09 A3028 RMK A01 T00211088  RH  044%=      5-min Rain = 0
KGO1 081936Z 34007KT 02/M08 A3028 RMK A01 T00221083  RH  046%=      5-min Rain = 0
KGO1 081937Z 35008KT 02/M08 A3028 RMK A01 T00241082  RH  045%=      5-min Rain = 0
KGO1 081938Z 35006KT 02/M09 A3028 RMK A01 T00231087  RH  044%=      5-min Rain = 0
KGO1 081939Z 34006KT 02/M09 A3028 RMK A01 T00231087  RH  044%=      5-min Rain = 0
KGO1 081940Z 34006KT 02/M09 A3028 RMK A01 T00221086  RH  044%=      5-min Rain = 0
KGO1 081941Z 34007KT 02/M09 A3028 RMK A01 T00221086  RH  045%=      5-min Rain = 0
KGO1 081942Z 35006KT 02/M09 A3028 RMK A01 T00221085  RH  045%=      5-min Rain = 0
KGO1 081943Z 35007KT 02/M08 A3028 RMK A01 T00221084  RH  045%=      5-min Rain = 0
KGO1 081944Z 35007KT 02/M09 A3028 RMK A01 T00231086  RH  045%=      5-min Rain = 0
KGO1 081945Z 34006KT 02/M08 A3028 RMK A01 T00231084  RH  045%=      5-min Rain = 0
KGO1 081946Z 34006KT 02/M08 A3028 RMK A01 T00231083  RH  046%=      5-min Rain = 0
KGO1 081947Z 35007KT 02/M08 A3028 RMK A01 T00231081  RH  046%=      5-min Rain = 0
KGO1 081948Z 35008KT 02/M08 A3027 RMK A01 T00241081  RH  046%=      5-min Rain = 0
KGO1 081949Z 34006KT 02/M08 A3027 RMK A01 T00231082  RH  046%=      5-min Rain = 0
KGO1 081950Z 34005KT 02/M08 A3027 RMK A01 T00231083  RH  045%=      5-min Rain = 0
KGO1 081951Z 35004KT 02/M08 A3027 RMK A01 T00231082  RH  046%=      5-min Rain = 0
KGO1 081952Z 35005KT 02/M08 A3027 RMK A01 T00241080  RH  046%=      5-min Rain = 0
KGO1 081953Z 34007KT 03/M08 A3027 RMK A01 T00251080  RH  046%=      5-min Rain = 0
KGO1 081954Z 01008KT 03/M08 A3027 RMK A01 T00261077  RH  047%=      5-min Rain = 0
KGO1 081955Z 02008KT 03/M08 A3027 RMK A01 T00281077  RH  046%=      5-min Rain = 0
KGO1 081956Z 01006KT 03/M08 A3027 RMK A01 T00281079  RH  045%=      5-min Rain = 0
KGO1 081957Z 01006KT 03/M08 A3027 RMK A01 T00271080  RH  045%=      5-min Rain = 0
KGO1 081958Z 00008KT 03/M08 A3027 RMK A01 T00271077  RH  046%=      5-min Rain = 0
KGO1 081959Z 35007KT 03/M08 A3027 RMK A01 T00281077  RH  046%=      5-min Rain = 0
KGO1 082000Z 35007KT 03/M08 A3027 RMK A01 T00281077  RH  046%=      5-min Rain = 0
KGO1 082001Z 36006KT 03/M08 A3027 RMK A01 T00281077  RH  046%=      5-min Rain = 0
KGO1 082002Z 35007KT 03/M08 A3027 RMK A01 T00281077  RH  046%=      5-min Rain = 0
KGO1 082003Z 00005KT 03/M08 A3027 RMK A01 T00291080  RH  045%=      5-min Rain = 0
KGO1 082004Z 01004KT 03/M08 A3027 RMK A01 T00281080  RH  045%=      5-min Rain = 0
KGO1 082005Z 01009KT 03/M08 A3027 RMK A01 T00281075  RH  047%=      5-min Rain = 0
KGO1 082006Z 00007KT 03/M08 A3027 RMK A01 T00291078  RH  045%=      5-min Rain = 0
KGO1 082007Z 35008KT 03/M08 A3027 RMK A01 T00291078  RH  045%=      5-min Rain = 0
KGO1 082008Z 00008KT 03/M08 A3027 RMK A01 T00291075  RH  046%=      5-min Rain = 0
KGO1 082009Z 36006KT 03/M08 A3027 RMK A01 T00291077  RH  046%=      5-min Rain = 0
KGO1 082010Z 02005KT 03/M08 A3027 RMK A01 T00271078  RH  046%=      5-min Rain = 0
KGO1 082011Z 02007KT 03/M07 A3027 RMK A01 T00291072  RH  047%=      5-min Rain = 0
KGO1 082012Z 01005KT 03/M07 A3027 RMK A01 T00311072  RH  047%=      5-min Rain = 0
KGO1 082013Z 00004KT 03/M07 A3027 RMK A01 T00321074  RH  045%=      5-min Rain = 0
KGO1 082014Z 02007KT 03/M07 A3027 RMK A01 T00331073  RH  046%=      5-min Rain = 0
KGO1 082015Z 02007KT 03/M08 A3027 RMK A01 T00331075  RH  045%=      5-min Rain = 0
KGO1 082016Z 03006KT 03/M08 A3027 RMK A01 T00311076  RH  045%=      5-min Rain = 0
KGO1 082017Z 00006KT 03/M07 A3027 RMK A01 T00301074  RH  046%=      5-min Rain = 0
KGO1 082018Z 02005KT 03/M07 A3027 RMK A01 T00311072  RH  047%=      5-min Rain = 0
KGO1 082019Z 01007KT 03/M07 A3027 RMK A01 T00311071  RH  047%=      5-min Rain = 0
KGO1 082020Z 01006KT 03/M07 A3026 RMK A01 T00301074  RH  046%=      5-min Rain = 0
KGO1 082021Z 02005KT 03/M08 A3026 RMK A01 T00291075  RH  046%=      5-min Rain = 0
KGO1 082022Z 02004KT 03/M08 A3026 RMK A01 T00291076  RH  046%=      5-min Rain = 0
KGO1 082023Z 01005KT 03/M08 A3026 RMK A01 T00301076  RH  046%=      5-min Rain = 0
KGO1 082024Z 02006KT 03/M08 A3026 RMK A01 T00311075  RH  046%=      5-min Rain = 0
KGO1 082025Z 03008KT 03/M07 A3026 RMK A01 T00331068  RH  047%=      5-min Rain = 0
KGO1 082026Z 04007KT 03/M07 A3026 RMK A01 T00331068  RH  047%=      5-min Rain = 0
KGO1 082027Z 04007KT 03/M07 A3026 RMK A01 T00331071  RH  047%=      5-min Rain = 0
KGO1 082028Z 04006KT 03/M07 A3026 RMK A01 T00311072  RH  047%=      5-min Rain = 0
KGO1 082029Z 04005KT 03/M07 A3026 RMK A01 T00311072  RH  047%=      5-min Rain = 0
KGO1 082030Z 03005KT 03/M07 A3026 RMK A01 T00311072  RH  047%=      5-min Rain = 0
KGO1 082031Z 03004G9KT 03/M07 A3026 RMK A01 T00301072  RH  047%=      5-min Rain = 0
KGO1 082032Z 03008KT 03/M07 A3026 RMK A01 T00311067  RH  049%=      5-min Rain = 0
KGO1 082033Z 02008KT 03/M07 A3026 RMK A01 T00321066  RH  049%=      5-min Rain = 0
KGO1 082034Z 01005KT 03/M07 A3026 RMK A01 T00321067  RH  048%=      5-min Rain = 0
KGO1 082035Z 00005KT 03/M07 A3026 RMK A01 T00321067  RH  048%=      5-min Rain = 0
KGO1 082036Z 02004KT 03/M07 A3026 RMK A01 T00321066  RH  048%=      5-min Rain = 0
KGO1 082037Z 04007KT 04/M06 A3026 RMK A01 T00351063  RH  049%=      5-min Rain = 0
KGO1 082038Z 05007KT 04/M07 A3026 RMK A01 T00371066  RH  047%=      5-min Rain = 0
KGO1 082039Z 06005KT 04/M07 A3026 RMK A01 T00361069  RH  046%=      5-min Rain = 0
KGO1 082040Z 05004KT 04/M07 A3026 RMK A01 T00361068  RH  047%=      5-min Rain = 0
KGO1 082041Z 04004KT 04/M07 A3026 RMK A01 T00361067  RH  047%=      5-min Rain = 0
KGO1 082042Z 02007KT 04/M06 A3026 RMK A01 T00371064  RH  047%=      5-min Rain = 0
KGO1 082043Z 03006KT 04/M06 A3026 RMK A01 T00371061  RH  049%=      5-min Rain = 0
KGO1 082044Z 00007KT 04/M06 A3026 RMK A01 T00391057  RH  050%=      5-min Rain = 0
KGO1 082045Z 36008KT 04/M06 A3026 RMK A01 T00401058  RH  049%=      5-min Rain = 0
KGO1 082046Z 00007KT 04/M06 A3026 RMK A01 T00381061  RH  048%=      5-min Rain = 0
KGO1 082047Z 01007KT 04/M06 A3025 RMK A01 T00371059  RH  050%=      5-min Rain = 0
KGO1 082048Z 36006KT 04/M06 A3025 RMK A01 T00361062  RH  049%=      5-min Rain = 0
KGO1 082049Z 35005KT 04/M06 A3025 RMK A01 T00361061  RH  049%=      5-min Rain = 0
KGO1 082050Z 02004KT 04/M06 A3025 RMK A01 T00371058  RH  050%=      5-min Rain = 0
KGO1 082051Z 03007KT 04/M06 A3025 RMK A01 T00401058  RH  049%=      5-min Rain = 0
KGO1 082052Z 04005KT 04/M06 A3025 RMK A01 T00421064  RH  046%=      5-min Rain = 0
KGO1 082053Z 05006KT 04/M07 A3025 RMK A01 T00411065  RH  046%=      5-min Rain = 0
KGO1 082054Z 04006KT 04/M06 A3025 RMK A01 T00431060  RH  047%=      5-min Rain = 0
KGO1 082055Z 05005KT 05/M06 A3025 RMK A01 T00451062  RH  046%=      5-min Rain = 0
KGO1 082056Z 05007KT 04/M07 A3025 RMK A01 T00421066  RH  045%=      5-min Rain = 0
KGO1 082057Z 05005KT 04/M06 A3025 RMK A01 T00401064  RH  047%=      5-min Rain = 0
KGO1 082058Z 03007KT 04/M06 A3025 RMK A01 T00411062  RH  047%=      5-min Rain = 0
KGO1 082059Z 05005KT 04/M06 A3025 RMK A01 T00431061  RH  047%=      5-min Rain = 0
KGO1 082100Z 04008KT 04/M06 A3025 RMK A01 T00431063  RH  046%=      5-min Rain = 0
KGO1 082101Z 03007KT 04/M07 A3025 RMK A01 T00421066  RH  045%=      5-min Rain = 0
KGO1 082102Z 03006KT 04/M07 A3025 RMK A01 T00391068  RH  045%=      5-min Rain = 0
KGO1 082103Z 02006KT 04/M07 A3025 RMK A01 T00381068  RH  046%=      5-min Rain = 0
KGO1 082104Z 03008KT 04/M07 A3025 RMK A01 T00391065  RH  047%=      5-min Rain = 0
KGO1 082105Z 04009KT 04/M06 A3025 RMK A01 T00411062  RH  047%=      5-min Rain = 0
KGO1 082106Z 02007KT 04/M06 A3025 RMK A01 T00431062  RH  046%=      5-min Rain = 0
KGO1 082107Z 01006KT 04/M06 A3025 RMK A01 T00421064  RH  046%=      5-min Rain = 0
KGO1 082108Z 03007KT 04/M07 A3025 RMK A01 T00401065  RH  046%=      5-min Rain = 0
KGO1 082109Z 02007KT 04/M06 A3025 RMK A01 T00401063  RH  047%=      5-min Rain = 0
KGO1 082110Z 01006KT 04/M06 A3025 RMK A01 T00411061  RH  047%=      5-min Rain = 0
KGO1 082111Z 03007KT 04/M06 A3025 RMK A01 T00411061  RH  048%=      5-min Rain = 0
KGO1 082112Z 04006KT 04/M06 A3025 RMK A01 T00411061  RH  047%=      5-min Rain = 0
KGO1 082113Z 04004KT 04/M06 A3025 RMK A01 T00411062  RH  047%=      5-min Rain = 0
KGO1 082114Z 05004KT 04/M06 A3025 RMK A01 T00411061  RH  047%=      5-min Rain = 0
KGO1 082115Z 04007KT 04/M06 A3025 RMK A01 T00431061  RH  047%=      5-min Rain = 0
KGO1 082116Z 02005KT 04/M06 A3025 RMK A01 T00431063  RH  046%=      5-min Rain = 0
KGO1 082117Z 02007KT 04/M06 A3025 RMK A01 T00421062  RH  047%=      5-min Rain = 0
KGO1 082118Z 04004KT 04/M06 A3025 RMK A01 T00411064  RH  046%=      5-min Rain = 0
KGO1 082119Z 03004KT 04/M07 A3025 RMK A01 T00401066  RH  046%=      5-min Rain = 0
KGO1 082120Z 02004KT 04/M06 A3025 RMK A01 T00391064  RH  047%=      5-min Rain = 0
KGO1 082121Z 05004KT 04/M06 A3025 RMK A01 T00401064  RH  046%=      5-min Rain = 0
KGO1 082122Z 03004KT 04/M07 A3025 RMK A01 T00401065  RH  046%=      5-min Rain = 0
KGO1 082123Z 01006KT 04/M06 A3025 RMK A01 T00421060  RH  048%=      5-min Rain = 0
KGO1 082124Z 01007KT 04/M06 A3025 RMK A01 T00431060  RH  047%=      5-min Rain = 0
KGO1 082125Z 36006KT 04/M06 A3025 RMK A01 T00421060  RH  047%=      5-min Rain = 0
KGO1 082126Z 35006KT 04/M06 A3025 RMK A01 T00421062  RH  047%=      5-min Rain = 0
KGO1 082127Z 36005KT 04/M06 A3025 RMK A01 T00411064  RH  046%=      5-min Rain = 0
KGO1 082128Z 02003KT 04/M06 A3025 RMK A01 T00401064  RH  047%=      5-min Rain = 0
KGO1 082129Z 02004KT 04/M06 A3025 RMK A01 T00401063  RH  047%=      5-min Rain = 0
KGO1 082130Z 03005KT 04/M06 A3025 RMK A01 T00421063  RH  046%=      5-min Rain = 0
KGO1 082131Z 03004KT 04/M07 A3025 RMK A01 T00421066  RH  045%=      5-min Rain = 0
KGO1 082132Z 02007G12KT 04/M06 A3025 RMK A01 T00401064  RH  046%=      5-min Rain = 0
KGO1 082133Z 35007KT 04/M06 A3025 RMK A01 T00421058  RH  048%=      5-min Rain = 0
KGO1 082134Z 36007KT 05/M06 A3025 RMK A01 T00451057  RH  048%=      5-min Rain = 0
KGO1 082135Z 00009KT 05/M06 A3025 RMK A01 T00451055  RH  048%=      5-min Rain = 0
KGO1 082136Z 00008KT 04/M06 A3025 RMK A01 T00441056  RH  048%=      5-min Rain = 0
KGO1 082137Z 34007KT 04/M06 A3025 RMK A01 T00421057  RH  048%=      5-min Rain = 0
KGO1 082138Z 35007KT 04/M05 A3025 RMK A01 T00431054  RH  049%=      5-min Rain = 0
KGO1 082139Z 36008KT 04/M05 A3025 RMK A01 T00441054  RH  049%=      5-min Rain = 0
KGO1 082140Z 01007KT 04/M05 A3025 RMK A01 T00431054  RH  049%=      5-min Rain = 0
KGO1 082141Z 00006KT 04/M06 A3025 RMK A01 T00421056  RH  049%=      5-min Rain = 0
KGO1 082142Z 34008KT 04/M06 A3025 RMK A01 T00411057  RH  049%=      5-min Rain = 0
KGO1 082143Z 35006KT 04/M06 A3025 RMK A01 T00411057  RH  049%=      5-min Rain = 0
KGO1 082144Z 34006KT 04/M06 A3025 RMK A01 T00411056  RH  049%=      5-min Rain = 0
KGO1 082145Z 33005KT 04/M06 A3025 RMK A01 T00421057  RH  049%=      5-min Rain = 0
KGO1 082146Z 34007KT 04/M06 A3025 RMK A01 T00411058  RH  049%=      5-min Rain = 0
KGO1 082147Z 01008KT 04/M06 A3025 RMK A01 T00411055  RH  050%=      5-min Rain = 0
KGO1 082148Z 02008KT 04/M06 A3025 RMK A01 T00421056  RH  049%=      5-min Rain = 0
KGO1 082149Z 03006KT 04/M06 A3025 RMK A01 T00411058  RH  049%=      5-min Rain = 0
KGO1 082150Z 02005KT 04/M06 A3025 RMK A01 T00401057  RH  049%=      5-min Rain = 0
KGO1 082151Z 03005KT 04/M06 A3025 RMK A01 T00411055  RH  050%=      5-min Rain = 0
KGO1 082152Z 00006KT 04/M06 A3025 RMK A01 T00421055  RH  049%=      5-min Rain = 0
KGO1 082153Z 35006KT 04/M06 A3025 RMK A01 T00421055  RH  049%=      5-min Rain = 0
KGO1 082154Z 36008KT 04/M05 A3025 RMK A01 T00421053  RH  050%=      5-min Rain = 0
KGO1 082155Z 35008KT 04/M05 A3025 RMK A01 T00421054  RH  049%=      5-min Rain = 0
KGO1 082156Z 34006KT 04/M06 A3025 RMK A01 T00411056  RH  049%=      5-min Rain = 0
KGO1 082157Z 35006KT 04/M06 A3025 RMK A01 T00401056  RH  050%=      5-min Rain = 0
KGO1 082158Z 36006KT 04/M06 A3025 RMK A01 T00401055  RH  050%=      5-min Rain = 0
KGO1 082159Z 00005KT 04/M06 A3025 RMK A01 T00401056  RH  050%=      5-min Rain = 0
KGO1 082200Z 36007KT 04/M06 A3025 RMK A01 T00401055  RH  050%=      5-min Rain = 0
KGO1 082201Z 01007KT 04/M06 A3024 RMK A01 T00401055  RH  050%=      5-min Rain = 0
KGO1 082202Z 01007KT 04/M06 A3024 RMK A01 T00401055  RH  050%=      5-min Rain = 0
KGO1 082203Z 36005KT 04/M06 A3024 RMK A01 T00401055  RH  050%=      5-min Rain = 0
KGO1 082204Z 34004KT 04/M06 A3024 RMK A01 T00391056  RH  050%=      5-min Rain = 0
KGO1 082205Z 35005KT 04/M06 A3024 RMK A01 T00391055  RH  050%=      5-min Rain = 0
KGO1 082206Z 02007KT 04/M05 A3025 RMK A01 T00391054  RH  051%=      5-min Rain = 0
KGO1 082207Z 03005KT 04/M06 A3024 RMK A01 T00391055  RH  050%=      5-min Rain = 0
KGO1 082208Z 02007KT 04/M06 A3024 RMK A01 T00381055  RH  050%=      5-min Rain = 0
KGO1 082209Z 03007KT 04/M05 A3024 RMK A01 T00381054  RH  051%=      5-min Rain = 0
KGO1 082210Z 02005KT 04/M06 A3024 RMK A01 T00381055  RH  051%=      5-min Rain = 0
KGO1 082211Z 03007KT 04/M05 A3024 RMK A01 T00381054  RH  051%=      5-min Rain = 0
KGO1 082212Z 03006KT 04/M05 A3024 RMK A01 T00381054  RH  051%=      5-min Rain = 0
KGO1 082213Z 02005KT 04/M05 A3024 RMK A01 T00381054  RH  051%=      5-min Rain = 0
KGO1 082214Z 02006KT 04/M05 A3024 RMK A01 T00381053  RH  051%=      5-min Rain = 0
KGO1 082215Z 36006KT 04/M05 A3024 RMK A01 T00391052  RH  051%=      5-min Rain = 0
KGO1 082216Z 34006KT 04/M05 A3024 RMK A01 T00401053  RH  051%=      5-min Rain = 0
KGO1 082217Z 34005KT 04/M06 A3024 RMK A01 T00401055  RH  050%=      5-min Rain = 0
KGO1 082218Z 33004KT 04/M06 A3024 RMK A01 T00391055  RH  050%=      5-min Rain = 0
KGO1 082219Z 35004KT 04/M06 A3024 RMK A01 T00391055  RH  050%=      5-min Rain = 0
KGO1 082220Z 00005KT 04/M05 A3024 RMK A01 T00391054  RH  051%=      5-min Rain = 0
KGO1 082221Z 01006KT 04/M05 A3024 RMK A01 T00391053  RH  051%=      5-min Rain = 0
KGO1 082222Z 02006KT 04/M05 A3024 RMK A01 T00391053  RH  051%=      5-min Rain = 0
KGO1 082223Z 03004KT 04/M05 A3024 RMK A01 T00391054  RH  051%=      5-min Rain = 0
KGO1 082224Z 02005KT 04/M06 A3024 RMK A01 T00381055  RH  051%=      5-min Rain = 0
KGO1 082225Z 03007KT 04/M05 A3024 RMK A01 T00371053  RH  052%=      5-min Rain = 0
KGO1 082226Z 01007KT 04/M05 A3024 RMK A01 T00371052  RH  052%=      5-min Rain = 0
KGO1 082227Z 02006KT 04/M05 A3024 RMK A01 T00381051  RH  052%=      5-min Rain = 0
KGO1 082228Z 01007KT 04/M05 A3024 RMK A01 T00391050  RH  052%=      5-min Rain = 0
KGO1 082229Z 01007KT 04/M05 A3024 RMK A01 T00391052  RH  052%=      5-min Rain = 0
KGO1 082230Z 01006KT 04/M05 A3024 RMK A01 T00381053  RH  051%=      5-min Rain = 0
KGO1 082231Z 36005KT 04/M05 A3025 RMK A01 T00381053  RH  051%=      5-min Rain = 0
KGO1 082232Z 35005KT 04/M05 A3025 RMK A01 T00371053  RH  052%=      5-min Rain = 0
KGO1 082233Z 00005KT 04/M05 A3025 RMK A01 T00371054  RH  052%=      5-min Rain = 0
KGO1 082234Z 02004KT 04/M05 A3025 RMK A01 T00371053  RH  052%=      5-min Rain = 0
KGO1 082235Z 01003KT 04/M05 A3025 RMK A01 T00371052  RH  052%=      5-min Rain = 0
KGO1 082236Z 01004KT 04/M05 A3025 RMK A01 T00381051  RH  052%=      5-min Rain = 0
KGO1 082237Z 01003KT 04/M05 A3025 RMK A01 T00381052  RH  052%=      5-min Rain = 0
KGO1 082238Z 01004KT 04/M05 A3025 RMK A01 T00371052  RH  052%=      5-min Rain = 0
KGO1 082239Z 01003KT 04/M05 A3025 RMK A01 T00371053  RH  052%=      5-min Rain = 0
KGO1 082240Z 01003KT 04/M05 A3025 RMK A01 T00361053  RH  052%=      5-min Rain = 0
KGO1 082241Z 01003KT 04/M05 A3025 RMK A01 T00361053  RH  052%=      5-min Rain = 0
KGO1 082242Z 01004KT 04/M05 A3025 RMK A01 T00361053  RH  052%=      5-min Rain = 0
KGO1 082243Z 01005KT 04/M05 A3025 RMK A01 T00371053  RH  052%=      5-min Rain = 0
KGO1 082244Z 35006KT 04/M06 A3025 RMK A01 T00381055  RH  051%=      5-min Rain = 0
KGO1 082245Z 35006KT 04/M06 A3025 RMK A01 T00371057  RH  050%=      5-min Rain = 0
KGO1 082246Z 01007KT 04/M06 A3025 RMK A01 T00371055  RH  051%=      5-min Rain = 0
KGO1 082247Z 01006KT 04/M05 A3025 RMK A01 T00361054  RH  052%=      5-min Rain = 0
KGO1 082248Z 01005KT 04/M05 A3025 RMK A01 T00361054  RH  052%=      5-min Rain = 0
KGO1 082249Z 01004KT 04/M05 A3025 RMK A01 T00351054  RH  052%=      5-min Rain = 0
KGO1 082250Z 02005KT 04/M05 A3025 RMK A01 T00351054  RH  052%=      5-min Rain = 0
KGO1 082251Z 02008KT 04/M06 A3025 RMK A01 T00351055  RH  052%=      5-min Rain = 0
KGO1 082252Z 02007KT 03/M05 A3025 RMK A01 T00341054  RH  052%=      5-min Rain = 0
KGO1 082253Z 01007KT 03/M05 A3025 RMK A01 T00341054  RH  053%=      5-min Rain = 0
KGO1 082254Z 00007KT 03/M05 A3025 RMK A01 T00331054  RH  053%=      5-min Rain = 0
KGO1 082255Z 00006KT 03/M05 A3025 RMK A01 T00331054  RH  053%=      5-min Rain = 0
KGO1 082256Z 00006KT 03/M05 A3025 RMK A01 T00321054  RH  053%=      5-min Rain = 0
KGO1 082257Z 36006KT 03/M06 A3025 RMK A01 T00321055  RH  053%=      5-min Rain = 0
KGO1 082258Z 36005KT 03/M06 A3025 RMK A01 T00321055  RH  053%=      5-min Rain = 0
KGO1 082259Z 35005KT 03/M05 A3025 RMK A01 T00321054  RH  053%=      5-min Rain = 0
KGO1 082300Z 36004KT 03/M06 A3025 RMK A01 T00311055  RH  053%=      5-min Rain = 0
KGO1 082301Z 00004KT 03/M06 A3025 RMK A01 T00311055  RH  053%=      5-min Rain = 0
KGO1 082302Z 00004KT 03/M06 A3025 RMK A01 T00301055  RH  054%=      5-min Rain = 0
KGO1 082303Z 00003KT 03/M05 A3025 RMK A01 T00301054  RH  054%=      5-min Rain = 0
KGO1 082304Z 00005KT 03/M05 A3025 RMK A01 T00301054  RH  054%=      5-min Rain = 0
KGO1 082305Z 03005KT 03/M05 A3025 RMK A01 T00291054  RH  054%=      5-min Rain = 0
KGO1 082306Z 03004KT 03/M05 A3025 RMK A01 T00291054  RH  055%=      5-min Rain = 0
KGO1 082307Z 02004KT 03/M05 A3025 RMK A01 T00281054  RH  055%=      5-min Rain = 0
KGO1 082308Z 01004KT 03/M05 A3025 RMK A01 T00281054  RH  055%=      5-min Rain = 0
KGO1 082309Z 02004KT 03/M05 A3025 RMK A01 T00271054  RH  055%=      5-min Rain = 0
KGO1 082310Z 01004KT 03/M05 A3025 RMK A01 T00261054  RH  056%=      5-min Rain = 0
KGO1 082311Z 01005KT 03/M05 A3025 RMK A01 T00261053  RH  056%=      5-min Rain = 0
KGO1 082312Z 01004KT 03/M05 A3025 RMK A01 T00251053  RH  056%=      5-min Rain = 0
KGO1 082313Z 01005KT 03/M05 A3025 RMK A01 T00251054  RH  056%=      5-min Rain = 0
KGO1 082314Z 01005KT 02/M05 A3025 RMK A01 T00241054  RH  056%=      5-min Rain = 0
KGO1 082315Z 01005KT 02/M05 A3026 RMK A01 T00231054  RH  057%=      5-min Rain = 0
KGO1 082316Z 02005KT 02/M05 A3026 RMK A01 T00231054  RH  057%=      5-min Rain = 0
KGO1 082317Z 02006KT 02/M06 A3026 RMK A01 T00211055  RH  057%=      5-min Rain = 0
KGO1 082318Z 02005KT 02/M05 A3026 RMK A01 T00211054  RH  057%=      5-min Rain = 0
KGO1 082319Z 01006KT 02/M06 A3026 RMK A01 T00191055  RH  058%=      5-min Rain = 0
KGO1 082320Z 00006KT 02/M05 A3026 RMK A01 T00191054  RH  058%=      5-min Rain = 0
KGO1 082321Z 00005KT 02/M05 A3026 RMK A01 T00191054  RH  058%=      5-min Rain = 0
KGO1 082322Z 00005KT 02/M05 A3026 RMK A01 T00191054  RH  058%=      5-min Rain = 0
KGO1 082323Z 01005KT 02/M05 A3026 RMK A01 T00191054  RH  059%=      5-min Rain = 0
KGO1 082324Z 01005KT 02/M05 A3026 RMK A01 T00181054  RH  059%=      5-min Rain = 0
KGO1 082325Z 01005KT 02/M06 A3026 RMK A01 T00171055  RH  059%=      5-min Rain = 0
KGO1 082326Z 02005KT 02/M06 A3025 RMK A01 T00151055  RH  059%=      5-min Rain = 0
KGO1 082327Z 02005KT 01/M06 A3025 RMK A01 T00141055  RH  060%=      5-min Rain = 0
KGO1 082328Z 02005KT 01/M06 A3025 RMK A01 T00131055  RH  060%=      5-min Rain = 0
KGO1 082329Z 02005KT 01/M06 A3025 RMK A01 T00121055  RH  061%=      5-min Rain = 0
KGO1 082330Z 02005KT 01/M06 A3026 RMK A01 T00121055  RH  061%=      5-min Rain = 0
KGO1 082331Z 02005KT 01/M06 A3026 RMK A01 T00101056  RH  061%=      5-min Rain = 0
KGO1 082332Z 02005KT 01/M06 A3026 RMK A01 T00091056  RH  062%=      5-min Rain = 0
KGO1 082333Z 02005KT 01/M06 A3026 RMK A01 T00091056  RH  062%=      5-min Rain = 0
KGO1 082334Z 02005KT 01/M06 A3026 RMK A01 T00081056  RH  062%=      5-min Rain = 0
KGO1 082335Z 02005KT 01/M06 A3026 RMK A01 T00071056  RH  063%=      5-min Rain = 0
KGO1 082336Z 02005KT 01/M06 A3026 RMK A01 T00061056  RH  063%=      5-min Rain = 0
KGO1 082337Z 03005KT 01/M06 A3026 RMK A01 T00061056  RH  063%=      5-min Rain = 0
KGO1 082338Z 02005KT 01/M06 A3026 RMK A01 T00061056  RH  063%=      5-min Rain = 0
KGO1 082339Z 02005KT 01/M06 A3026 RMK A01 T00051056  RH  064%=      5-min Rain = 0
KGO1 082340Z 02005KT 00/M06 A3026 RMK A01 T00041057  RH  064%=      5-min Rain = 0
KGO1 082341Z 02005KT 00/M06 A3026 RMK A01 T00041056  RH  064%=      5-min Rain = 0
KGO1 082342Z 02005KT 00/M06 A3026 RMK A01 T00031057  RH  064%=      5-min Rain = 0
KGO1 082343Z 02005KT 00/M06 A3026 RMK A01 T00031056  RH  064%=      5-min Rain = 0
KGO1 082344Z 02005KT 00/M06 A3026 RMK A01 T00041056  RH  064%=      5-min Rain = 0
KGO1 082345Z 02005KT 00/M06 A3026 RMK A01 T00031055  RH  065%=      5-min Rain = 0
KGO1 082346Z 02005KT 00/M06 A3026 RMK A01 T00041056  RH  065%=      5-min Rain = 0
KGO1 082347Z 02005KT 00/M06 A3026 RMK A01 T00031056  RH  064%=      5-min Rain = 0
KGO1 082348Z 02005KT 00/M06 A3026 RMK A01 T00021057  RH  065%=      5-min Rain = 0
KGO1 082349Z 02005KT 00/M06 A3026 RMK A01 T00011057  RH  065%=      5-min Rain = 0
KGO1 082350Z 02005KT 00/M06 A3026 RMK A01 T00011056  RH  065%=      5-min Rain = 0
KGO1 082351Z 02005KT 00/M06 A3026 RMK A01 T00011056  RH  065%=      5-min Rain = 0
KGO1 082352Z 01004KT 00/M06 A3026 RMK A01 T00011056  RH  065%=      5-min Rain = 0
KGO1 082353Z 01004KT 00/06 A3026 RMK A01 T00000-57  RH  065%=      5-min Rain = 0
KGO1 082354Z 00004KT M00/M06 A3026 RMK A01 T10011058  RH  066%=      5-min Rain = 0
KGO1 082355Z 00004KT M00/M06 A3026 RMK A01 T10021057  RH  066%=      5-min Rain = 0
KGO1 082356Z 00004KT M00/M06 A3026 RMK A01 T10021056  RH  067%=      5-min Rain = 0
KGO1 082357Z 00004KT M00/M06 A3026 RMK A01 T10011055  RH  067%=      5-min Rain = 0
KGO1 082358Z 36004KT M00/M06 A3026 RMK A01 T10011056  RH  067%=      5-min Rain = 0
KGO1 082359Z 01004KT M00/M06 A3026 RMK A01 T10011056  RH  066%=      5-min Rain = 0
KGO1 090000Z 01004KT M00/M06 A3026 RMK A01 T10011056  RH  066%=      5-min Rain = 0
KGO1 090001Z 01004KT M00/M06 A3026 RMK A01 T10021058  RH  066%=      5-min Rain = 0
KGO1 090002Z 01004KT M00/M06 A3026 RMK A01 T10021057  RH  067%=      5-min Rain = 0
KGO1 090003Z 01004KT M00/M06 A3026 RMK A01 T10021057  RH  066%=      5-min Rain = 0
KGO1 090004Z 01004KT M00/M06 A3026 RMK A01 T10021058  RH  066%=      5-min Rain = 0
KGO1 090005Z 01004KT M00/M06 A3026 RMK A01 T10031058  RH  067%=      5-min Rain = 0
KGO1 090006Z 01005KT M00/M06 A3026 RMK A01 T10031057  RH  067%=      5-min Rain = 0
KGO1 090007Z 01005KT M00/M06 A3026 RMK A01 T10031057  RH  067%=      5-min Rain = 0
KGO1 090008Z 00005KT M00/M06 A3026 RMK A01 T10031057  RH  067%=      5-min Rain = 0
KGO1 090009Z 01005KT M00/M06 A3026 RMK A01 T10041058  RH  067%=      5-min Rain = 0
KGO1 090010Z 01005KT M00/M06 A3026 RMK A01 T10041058  RH  067%=      5-min Rain = 0
KGO1 090011Z 00005KT M01/M06 A3026 RMK A01 T10061059  RH  067%=      5-min Rain = 0
KGO1 090012Z 00004KT M01/M06 A3026 RMK A01 T10071060  RH  068%=      5-min Rain = 0
KGO1 090013Z 00004KT M01/M06 A3026 RMK A01 T10071059  RH  068%=      5-min Rain = 0
KGO1 090014Z 00004KT M01/M06 A3026 RMK A01 T10081058  RH  069%=      5-min Rain = 0
KGO1 090015Z 00004KT M01/M06 A3026 RMK A01 T10081059  RH  069%=      5-min Rain = 0
KGO1 090016Z 00004KT M01/M06 A3026 RMK A01 T10081059  RH  069%=      5-min Rain = 0
KGO1 090017Z 36004KT M01/M06 A3027 RMK A01 T10091058  RH  069%=      5-min Rain = 0
KGO1 090018Z 36004KT M01/M06 A3027 RMK A01 T10091059  RH  069%=      5-min Rain = 0
KGO1 090019Z 35004KT M01/M06 A3027 RMK A01 T10091058  RH  069%=      5-min Rain = 0
KGO1 090020Z 35004KT M01/M06 A3027 RMK A01 T10081057  RH  070%=      5-min Rain = 0
KGO1 090021Z 35004KT M01/M06 A3027 RMK A01 T10071056  RH  069%=      5-min Rain = 0
KGO1 090022Z 35004KT M01/M06 A3027 RMK A01 T10071057  RH  069%=      5-min Rain = 0
KGO1 090023Z 35004KT M01/M06 A3026 RMK A01 T10071058  RH  068%=      5-min Rain = 0
KGO1 090024Z 35004KT M01/M06 A3026 RMK A01 T10071059  RH  068%=      5-min Rain = 0
KGO1 090025Z 36004KT M01/M06 A3026 RMK A01 T10071059  RH  068%=      5-min Rain = 0
KGO1 090026Z 35004KT M01/M06 A3027 RMK A01 T10071059  RH  068%=      5-min Rain = 0
KGO1 090027Z 35004KT M01/M06 A3027 RMK A01 T10081059  RH  068%=      5-min Rain = 0
KGO1 090028Z 35004KT M01/M06 A3027 RMK A01 T10081060  RH  068%=      5-min Rain = 0
KGO1 090029Z 35004KT M01/M06 A3027 RMK A01 T10091059  RH  069%=      5-min Rain = 0
KGO1 090030Z 35004KT M01/M06 A3027 RMK A01 T10091059  RH  069%=      5-min Rain = 0
KGO1 090031Z 35004KT M01/M06 A3027 RMK A01 T10091060  RH  068%=      5-min Rain = 0
KGO1 090032Z 35004KT M01/M06 A3027 RMK A01 T10101061  RH  069%=      5-min Rain = 0
KGO1 090033Z 35004KT M01/M06 A3027 RMK A01 T10111061  RH  069%=      5-min Rain = 0
KGO1 090034Z 35004KT M01/M06 A3027 RMK A01 T10121061  RH  069%=      5-min Rain = 0
KGO1 090035Z 35005KT M01/M06 A3027 RMK A01 T10121060  RH  070%=      5-min Rain = 0
KGO1 090036Z 35005KT M01/M06 A3027 RMK A01 T10121060  RH  070%=      5-min Rain = 0
KGO1 090037Z 35005KT M01/M06 A3027 RMK A01 T10121061  RH  070%=      5-min Rain = 0
KGO1 090038Z 35005KT M01/M06 A3027 RMK A01 T10121061  RH  069%=      5-min Rain = 0
KGO1 090039Z 35005KT M01/M06 A3027 RMK A01 T10141062  RH  069%=      5-min Rain = 0
KGO1 090040Z 35005KT M01/M06 A3027 RMK A01 T10141062  RH  070%=      5-min Rain = 0
KGO1 090041Z 35005KT M01/M06 A3027 RMK A01 T10141062  RH  070%=      5-min Rain = 0
KGO1 090042Z 35005KT M02/M06 A3027 RMK A01 T10151063  RH  070%=      5-min Rain = 0
KGO1 090043Z 35005KT M02/M06 A3027 RMK A01 T10151062  RH  070%=      5-min Rain = 0
KGO1 090044Z 35005KT M02/M06 A3027 RMK A01 T10151062  RH  070%=      5-min Rain = 0
KGO1 090045Z 35004KT M02/M06 A3027 RMK A01 T10151062  RH  070%=      5-min Rain = 0
KGO1 090046Z 35005KT M02/M06 A3027 RMK A01 T10151062  RH  070%=      5-min Rain = 0
KGO1 090047Z 35005KT M02/M06 A3027 RMK A01 T10161063  RH  070%=      5-min Rain = 0
KGO1 090048Z 35005KT M02/M06 A3027 RMK A01 T10171063  RH  071%=      5-min Rain = 0
KGO1 090049Z 35005KT M02/M06 A3027 RMK A01 T10171063  RH  071%=      5-min Rain = 0
KGO1 090050Z 35005KT M02/M07 A3027 RMK A01 T10181065  RH  071%=      5-min Rain = 0
KGO1 090051Z 36005KT M02/M06 A3027 RMK A01 T10191064  RH  071%=      5-min Rain = 0
KGO1 090052Z 36005KT M02/M06 A3027 RMK A01 T10191064  RH  072%=      5-min Rain = 0
KGO1 090053Z 36005KT M02/M06 A3027 RMK A01 T10201064  RH  072%=      5-min Rain = 0
KGO1 090054Z 35005KT M02/M06 A3027 RMK A01 T10191063  RH  072%=      5-min Rain = 0
KGO1 090055Z 35005KT M02/M06 A3027 RMK A01 T10201064  RH  072%=      5-min Rain = 0
KGO1 090056Z 35005KT M02/M07 A3027 RMK A01 T10211065  RH  072%=      5-min Rain = 0
KGO1 090057Z 35005KT M02/M07 A3027 RMK A01 T10211065  RH  072%=      5-min Rain = 0
KGO1 090058Z 35006KT M02/M06 A3027 RMK A01 T10211064  RH  072%=      5-min Rain = 0
KGO1 090059Z 36005KT M02/M07 A3027 RMK A01 T10211065  RH  072%=      5-min Rain = 0
KGO1 090100Z 35005KT M02/M07 A3027 RMK A01 T10221065  RH  073%=      5-min Rain = 0
KGO1 090101Z 35005KT M02/M06 A3027 RMK A01 T10221064  RH  073%=      5-min Rain = 0
KGO1 090102Z 35005KT M02/M06 A3027 RMK A01 T10221064  RH  073%=      5-min Rain = 0
KGO1 090103Z 35005KT M02/M06 A3027 RMK A01 T10221064  RH  073%=      5-min Rain = 0
KGO1 090104Z 35005KT M02/M07 A3027 RMK A01 T10221065  RH  073%=      5-min Rain = 0
KGO1 090105Z 36005KT M02/M07 A3027 RMK A01 T10221065  RH  073%=      5-min Rain = 0
KGO1 090106Z 36005KT M02/M07 A3027 RMK A01 T10231065  RH  073%=      5-min Rain = 0
KGO1 090107Z 36005KT M02/M07 A3027 RMK A01 T10231065  RH  073%=      5-min Rain = 0
KGO1 090108Z 35005KT M02/M07 A3027 RMK A01 T10231066  RH  072%=      5-min Rain = 0
KGO1 090109Z 35005KT M02/M07 A3027 RMK A01 T10241065  RH  073%=      5-min Rain = 0
KGO1 090110Z 36005KT M02/M07 A3027 RMK A01 T10231065  RH  073%=      5-min Rain = 0
KGO1 090111Z 36005KT M02/M07 A3027 RMK A01 T10231065  RH  073%=      5-min Rain = 0
KGO1 090112Z 36005KT M02/M07 A3027 RMK A01 T10241066  RH  073%=      5-min Rain = 0
KGO1 090113Z 35005KT M03/M07 A3027 RMK A01 T10251067  RH  073%=      5-min Rain = 0
KGO1 090114Z 35005KT M03/M07 A3028 RMK A01 T10251067  RH  073%=      5-min Rain = 0
KGO1 090115Z 35005KT M03/M07 A3028 RMK A01 T10261066  RH  074%=      5-min Rain = 0
KGO1 090116Z 35004KT M03/M07 A3028 RMK A01 T10261065  RH  074%=      5-min Rain = 0
KGO1 090117Z 34004KT M03/M07 A3028 RMK A01 T10251065  RH  074%=      5-min Rain = 0
KGO1 090118Z 34004KT M02/M07 A3028 RMK A01 T10241066  RH  073%=      5-min Rain = 0
KGO1 090119Z 34004KT M02/M07 A3028 RMK A01 T10241065  RH  073%=      5-min Rain = 0
KGO1 090120Z 34004KT M02/M07 A3028 RMK A01 T10241065  RH  074%=      5-min Rain = 0
KGO1 090121Z 34004KT M03/M07 A3028 RMK A01 T10251066  RH  074%=      5-min Rain = 0
KGO1 090122Z 34004KT M03/M07 A3028 RMK A01 T10261066  RH  074%=      5-min Rain = 0
KGO1 090123Z 34004KT M03/M07 A3028 RMK A01 T10261066  RH  074%=      5-min Rain = 0
KGO1 090124Z 34004KT M03/M07 A3028 RMK A01 T10271066  RH  074%=      5-min Rain = 0
KGO1 090125Z 34004KT M03/M07 A3028 RMK A01 T10271066  RH  074%=      5-min Rain = 0
KGO1 090126Z 34004KT M03/M07 A3028 RMK A01 T10271066  RH  074%=      5-min Rain = 0
KGO1 090127Z 35004KT M03/M07 A3028 RMK A01 T10271067  RH  074%=      5-min Rain = 0
KGO1 090128Z 35004KT M03/M07 A3028 RMK A01 T10281067  RH  074%=      5-min Rain = 0
KGO1 090129Z 35004KT M03/M07 A3028 RMK A01 T10281066  RH  075%=      5-min Rain = 0
KGO1 090130Z 35004KT M03/M07 A3028 RMK A01 T10281066  RH  075%=      5-min Rain = 0
KGO1 090131Z 36004KT M03/M07 A3028 RMK A01 T10271065  RH  075%=      5-min Rain = 0
KGO1 090132Z 00004KT M03/M07 A3028 RMK A01 T10261065  RH  075%=      5-min Rain = 0
KGO1 090133Z 00004KT M03/M06 A3028 RMK A01 T10251064  RH  074%=      5-min Rain = 0
KGO1 090134Z 00005KT M02/M06 A3028 RMK A01 T10241064  RH  074%=      5-min Rain = 0
KGO1 090135Z 00005KT M02/M07 A3028 RMK A01 T10231065  RH  073%=      5-min Rain = 0
KGO1 090136Z 00005KT M02/M07 A3028 RMK A01 T10231065  RH  073%=      5-min Rain = 0
KGO1 090137Z 36005KT M02/M07 A3028 RMK A01 T10231066  RH  073%=      5-min Rain = 0
KGO1 090138Z 36005KT M02/M07 A3028 RMK A01 T10241066  RH  072%=      5-min Rain = 0
KGO1 090139Z 36005KT M02/M07 A3028 RMK A01 T10241066  RH  073%=      5-min Rain = 0
KGO1 090140Z 36005KT M02/M07 A3028 RMK A01 T10241066  RH  073%=      5-min Rain = 0
KGO1 090141Z 00005KT M03/M07 A3028 RMK A01 T10251067  RH  073%=      5-min Rain = 0
KGO1 090142Z 00005KT M03/M07 A3028 RMK A01 T10261068  RH  073%=      5-min Rain = 0
KGO1 090143Z 00005KT M03/M07 A3028 RMK A01 T10271068  RH  074%=      5-min Rain = 0
KGO1 090144Z 00005KT M03/M07 A3028 RMK A01 T10271066  RH  074%=      5-min Rain = 0
KGO1 090145Z 00004KT M03/M07 A3028 RMK A01 T10261066  RH  074%=      5-min Rain = 0
KGO1 090146Z 00004KT M03/M07 A3028 RMK A01 T10251065  RH  074%=      5-min Rain = 0
KGO1 090147Z 00005KT M03/M07 A3028 RMK A01 T10251065  RH  074%=      5-min Rain = 0
KGO1 090148Z 00004KT M03/M07 A3028 RMK A01 T10251066  RH  073%=      5-min Rain = 0
KGO1 090149Z 00004KT M02/M07 A3028 RMK A01 T10241065  RH  073%=      5-min Rain = 0
KGO1 090150Z 00005KT M02/M07 A3028 RMK A01 T10241065  RH  073%=      5-min Rain = 0
KGO1 090151Z 00005KT M02/M07 A3028 RMK A01 T10241066  RH  073%=      5-min Rain = 0
KGO1 090152Z 00005KT M03/M07 A3028 RMK A01 T10251067  RH  073%=      5-min Rain = 0
KGO1 090153Z 00005KT M03/M07 A3028 RMK A01 T10251066  RH  073%=      5-min Rain = 0
KGO1 090154Z 00005KT M03/M07 A3028 RMK A01 T10251067  RH  073%=      5-min Rain = 0
KGO1 090155Z 00006KT M03/M07 A3028 RMK A01 T10251067  RH  073%=      5-min Rain = 0
KGO1 090156Z 00005KT M03/M07 A3028 RMK A01 T10261068  RH  073%=      5-min Rain = 0
KGO1 090157Z 00005KT M03/M07 A3028 RMK A01 T10271068  RH  073%=      5-min Rain = 0
KGO1 090158Z 00005KT M03/M07 A3028 RMK A01 T10281068  RH  074%=      5-min Rain = 0
KGO1 090159Z 00005KT M03/M07 A3028 RMK A01 T10291068  RH  074%=      5-min Rain = 0
KGO1 090200Z 00005KT M03/M07 A3029 RMK A01 T10281067  RH  075%=      5-min Rain = 0
KGO1 090201Z 00005KT M03/M07 A3029 RMK A01 T10291068  RH  075%=      5-min Rain = 0
KGO1 090202Z 00005KT M03/M07 A3029 RMK A01 T10291067  RH  075%=      5-min Rain = 0
KGO1 090203Z 00005KT M03/M07 A3029 RMK A01 T10291067  RH  075%=      5-min Rain = 0
KGO1 090204Z 36005KT M03/M07 A3029 RMK A01 T10291067  RH  075%=      5-min Rain = 0
KGO1 090205Z 36005KT M03/M07 A3029 RMK A01 T10281066  RH  075%=      5-min Rain = 0
KGO1 090206Z 36005KT M03/M07 A3029 RMK A01 T10281067  RH  074%=      5-min Rain = 0
KGO1 090207Z 36005KT M03/M07 A3029 RMK A01 T10281068  RH  074%=      5-min Rain = 0
KGO1 090208Z 36005KT M03/M07 A3029 RMK A01 T10291068  RH  075%=      5-min Rain = 0
KGO1 090209Z 35005KT M03/M07 A3029 RMK A01 T10301068  RH  075%=      5-min Rain = 0
KGO1 090210Z 35005KT M03/M07 A3029 RMK A01 T10301067  RH  075%=      5-min Rain = 0
KGO1 090211Z 35005KT M03/M07 A3029 RMK A01 T10301068  RH  075%=      5-min Rain = 0
KGO1 090212Z 35005KT M03/M07 A3029 RMK A01 T10301068  RH  075%=      5-min Rain = 0
KGO1 090213Z 35004KT M03/M07 A3029 RMK A01 T10301068  RH  075%=      5-min Rain = 0
KGO1 090214Z 36005KT M03/M07 A3029 RMK A01 T10301068  RH  075%=      5-min Rain = 0
KGO1 090215Z 35004KT M03/M07 A3029 RMK A01 T10291067  RH  075%=      5-min Rain = 0
KGO1 090216Z 35005KT M03/M07 A3029 RMK A01 T10291067  RH  075%=      5-min Rain = 0
KGO1 090217Z 35004KT M03/M07 A3029 RMK A01 T10271065  RH  075%=      5-min Rain = 0
KGO1 090218Z 35005KT M03/M07 A3029 RMK A01 T10271065  RH  075%=      5-min Rain = 0
KGO1 090219Z 35005KT M03/M07 A3029 RMK A01 T10261065  RH  074%=      5-min Rain = 0
KGO1 090220Z 35004KT M03/M07 A3029 RMK A01 T10261066  RH  074%=      5-min Rain = 0
KGO1 090221Z 35005KT M03/M07 A3029 RMK A01 T10251066  RH  074%=      5-min Rain = 0
KGO1 090222Z 35005KT M03/M07 A3029 RMK A01 T10261067  RH  073%=      5-min Rain = 0
KGO1 090223Z 35005KT M03/M07 A3029 RMK A01 T10251066  RH  073%=      5-min Rain = 0
KGO1 090224Z 35005KT M03/M07 A3029 RMK A01 T10251066  RH  074%=      5-min Rain = 0
KGO1 090225Z 35005KT M03/M07 A3029 RMK A01 T10251066  RH  074%=      5-min Rain = 0
KGO1 090226Z 34004KT M03/M07 A3029 RMK A01 T10251066  RH  073%=      5-min Rain = 0
KGO1 090227Z 34004KT M03/M07 A3029 RMK A01 T10251066  RH  073%=      5-min Rain = 0
KGO1 090228Z 34004KT M03/M07 A3029 RMK A01 T10251066  RH  074%=      5-min Rain = 0
KGO1 090229Z 34004KT M03/M07 A3029 RMK A01 T10251066  RH  073%=      5-min Rain = 0
KGO1 090230Z 34004KT M03/M07 A3029 RMK A01 T10261067  RH  073%=      5-min Rain = 0
KGO1 090231Z 34004KT M03/M07 A3029 RMK A01 T10261066  RH  074%=      5-min Rain = 0
KGO1 090232Z 34004KT M03/M07 A3029 RMK A01 T10261066  RH  074%=      5-min Rain = 0
KGO1 090233Z 35004KT M03/M07 A3029 RMK A01 T10261066  RH  074%=      5-min Rain = 0
KGO1 090234Z 35004KT M03/M07 A3029 RMK A01 T10271068  RH  074%=      5-min Rain = 0
KGO1 090235Z 35004KT M03/M07 A3029 RMK A01 T10271068  RH  074%=      5-min Rain = 0
KGO1 090236Z 35004KT M03/M07 A3029 RMK A01 T10271067  RH  074%=      5-min Rain = 0
KGO1 090237Z 35004KT M03/M07 A3029 RMK A01 T10271066  RH  075%=      5-min Rain = 0
KGO1 090238Z 35004KT M03/M07 A3029 RMK A01 T10271066  RH  074%=      5-min Rain = 0
KGO1 090239Z 35004KT M03/M07 A3029 RMK A01 T10271066  RH  074%=      5-min Rain = 0
KGO1 090240Z 35004KT M03/M07 A3029 RMK A01 T10271066  RH  074%=      5-min Rain = 0
KGO1 090241Z 36004KT M03/M07 A3029 RMK A01 T10271067  RH  074%=      5-min Rain = 0
KGO1 090242Z 36004KT M03/M07 A3029 RMK A01 T10281067  RH  074%=      5-min Rain = 0
KGO1 090243Z 35004KT M03/M07 A3029 RMK A01 T10291067  RH  075%=      5-min Rain = 0
KGO1 090244Z 35004KT M03/M07 A3029 RMK A01 T10291067  RH  075%=      5-min Rain = 0
KGO1 090245Z 36004KT M03/M07 A3029 RMK A01 T10291067  RH  075%=      5-min Rain = 0
KGO1 090246Z 00004KT M03/M07 A3029 RMK A01 T10281066  RH  075%=      5-min Rain = 0
KGO1 090247Z 00004KT M03/M07 A3029 RMK A01 T10281066  RH  075%=      5-min Rain = 0
KGO1 090248Z 36004KT M03/M07 A3029 RMK A01 T10281066  RH  075%=      5-min Rain = 0
KGO1 090249Z 35004KT M03/M07 A3029 RMK A01 T10271066  RH  075%=      5-min Rain = 0
KGO1 090250Z 35005KT M03/M07 A3029 RMK A01 T10261065  RH  074%=      5-min Rain = 0
KGO1 090251Z 35005KT M03/M07 A3029 RMK A01 T10261065  RH  074%=      5-min Rain = 0
KGO1 090252Z 35005KT M03/M07 A3029 RMK A01 T10261066  RH  074%=      5-min Rain = 0
KGO1 090253Z 35005KT M03/M07 A3029 RMK A01 T10251066  RH  074%=      5-min Rain = 0
KGO1 090254Z 35004KT M03/M07 A3029 RMK A01 T10261067  RH  074%=      5-min Rain = 0
KGO1 090255Z 35004KT M03/M07 A3029 RMK A01 T10281068  RH  074%=      5-min Rain = 0
KGO1 090256Z 35004KT M03/M07 A3029 RMK A01 T10281067  RH  075%=      5-min Rain = 0
KGO1 090257Z 35004KT M03/M07 A3029 RMK A01 T10281066  RH  075%=      5-min Rain = 0
KGO1 090258Z 35004KT M03/M07 A3029 RMK A01 T10271065  RH  075%=      5-min Rain = 0
KGO1 090259Z 35004KT M03/M07 A3029 RMK A01 T10271066  RH  075%=      5-min Rain = 0
KGO1 090300Z 35004KT M03/M07 A3029 RMK A01 T10271066  RH  074%=      5-min Rain = 0
KGO1 090301Z 35004KT M03/M07 A3029 RMK A01 T10271066  RH  074%=      5-min Rain = 0
KGO1 090302Z 35004KT M03/M07 A3029 RMK A01 T10271066  RH  074%=      5-min Rain = 0
KGO1 090303Z 35003KT M03/M07 A3029 RMK A01 T10271066  RH  075%=      5-min Rain = 0
KGO1 090304Z 35003KT M03/M07 A3029 RMK A01 T10281066  RH  075%=      5-min Rain = 0
KGO1 090305Z 36003KT M03/M07 A3029 RMK A01 T10281066  RH  075%=      5-min Rain = 0
KGO1 090306Z 35003KT M03/M07 A3029 RMK A01 T10291067  RH  075%=      5-min Rain = 0
KGO1 090307Z 35003KT M03/M07 A3029 RMK A01 T10301067  RH  075%=      5-min Rain = 0
KGO1 090308Z 35004KT M03/M07 A3029 RMK A01 T10301067  RH  076%=      5-min Rain = 0
KGO1 090309Z 35004KT M03/M07 A3029 RMK A01 T10311067  RH  076%=      5-min Rain = 0
KGO1 090310Z 35004KT M03/M07 A3029 RMK A01 T10311067  RH  076%=      5-min Rain = 0
KGO1 090311Z 35004KT M03/M07 A3029 RMK A01 T10301066  RH  076%=      5-min Rain = 0
KGO1 090312Z 35004KT M03/M07 A3029 RMK A01 T10291066  RH  076%=      5-min Rain = 0
KGO1 090313Z 35004KT M03/M07 A3029 RMK A01 T10281065  RH  076%=      5-min Rain = 0
KGO1 090314Z 35004KT M03/M07 A3029 RMK A01 T10271065  RH  075%=      5-min Rain = 0
KGO1 090315Z 36004KT M03/M07 A3029 RMK A01 T10271065  RH  075%=      5-min Rain = 0
KGO1 090316Z 00004KT M03/M07 A3029 RMK A01 T10271066  RH  075%=      5-min Rain = 0
KGO1 090317Z 00004KT M03/M07 A3029 RMK A01 T10271065  RH  075%=      5-min Rain = 0
KGO1 090318Z 00004KT M03/M06 A3029 RMK A01 T10261064  RH  075%=      5-min Rain = 0
KGO1 090319Z 00004KT M03/M07 A3029 RMK A01 T10251065  RH  074%=      5-min Rain = 0
KGO1 090320Z 00004KT M03/M07 A3029 RMK A01 T10251065  RH  074%=      5-min Rain = 0
KGO1 090321Z 00004KT M03/M07 A3029 RMK A01 T10251066  RH  074%=      5-min Rain = 0
KGO1 090322Z 01005KT M03/M07 A3029 RMK A01 T10261066  RH  074%=      5-min Rain = 0
KGO1 090323Z 01005KT M03/M07 A3029 RMK A01 T10261066  RH  074%=      5-min Rain = 0
KGO1 090324Z 01005KT M03/M07 A3029 RMK A01 T10261066  RH  074%=      5-min Rain = 0
KGO1 090325Z 00005KT M03/M07 A3029 RMK A01 T10261067  RH  074%=      5-min Rain = 0
KGO1 090326Z 00005KT M03/M07 A3029 RMK A01 T10261067  RH  074%=      5-min Rain = 0
KGO1 090327Z 00005KT M03/M07 A3029 RMK A01 T10271067  RH  074%=      5-min Rain = 0
KGO1 090328Z 00005KT M03/M07 A3029 RMK A01 T10271067  RH  074%=      5-min Rain = 0
KGO1 090329Z 00005KT M03/M07 A3029 RMK A01 T10281068  RH  074%=      5-min Rain = 0
KGO1 090330Z 00005KT M03/M07 A3029 RMK A01 T10291068  RH  075%=      5-min Rain = 0
KGO1 090331Z 00005KT M03/M07 A3029 RMK A01 T10301067  RH  075%=      5-min Rain = 0
KGO1 090332Z 00005KT M03/M07 A3029 RMK A01 T10301067  RH  076%=      5-min Rain = 0
KGO1 090333Z 00005KT M03/M07 A3029 RMK A01 T10321069  RH  075%=      5-min Rain = 0
KGO1 090334Z 00005KT M03/M07 A3029 RMK A01 T10331070  RH  076%=      5-min Rain = 0
KGO1 090335Z 36005KT M03/M07 A3029 RMK A01 T10331069  RH  076%=      5-min Rain = 0
KGO1 090336Z 35005KT M03/M07 A3029 RMK A01 T10341070  RH  076%=      5-min Rain = 0
KGO1 090337Z 35005KT M04/M07 A3029 RMK A01 T10361071  RH  077%=      5-min Rain = 0
KGO1 090338Z 34005KT M04/M07 A3029 RMK A01 T10371071  RH  078%=      5-min Rain = 0
KGO1 090339Z 34005KT M04/M07 A3029 RMK A01 T10371069  RH  078%=      5-min Rain = 0
KGO1 090340Z 34005KT M04/M07 A3029 RMK A01 T10361070  RH  078%=      5-min Rain = 0
KGO1 090341Z 34005KT M04/M07 A3029 RMK A01 T10361071  RH  077%=      5-min Rain = 0
KGO1 090342Z 35005KT M04/M07 A3029 RMK A01 T10361070  RH  077%=      5-min Rain = 0
KGO1 090343Z 35005KT M04/M07 A3029 RMK A01 T10351069  RH  078%=      5-min Rain = 0
KGO1 090344Z 34005KT M04/M07 A3029 RMK A01 T10361069  RH  077%=      5-min Rain = 0
KGO1 090345Z 34006KT M04/M07 A3029 RMK A01 T10361069  RH  078%=      5-min Rain = 0
KGO1 090346Z 35006KT M04/M07 A3029 RMK A01 T10371070  RH  078%=      5-min Rain = 0
KGO1 090347Z 35006KT M04/M07 A3029 RMK A01 T10381071  RH  078%=      5-min Rain = 0
KGO1 090348Z 36006KT M04/M07 A3029 RMK A01 T10391072  RH  078%=      5-min Rain = 0
KGO1 090349Z 36006KT M04/M07 A3029 RMK A01 T10401072  RH  078%=      5-min Rain = 0
KGO1 090350Z 36006KT M04/M07 A3029 RMK A01 T10411072  RH  079%=      5-min Rain = 0
KGO1 090351Z 35005KT M04/M07 A3029 RMK A01 T10411072  RH  080%=      5-min Rain = 0
KGO1 090352Z 34005KT M04/M07 A3029 RMK A01 T10411072  RH  080%=      5-min Rain = 0
KGO1 090353Z 34006KT M04/M07 A3029 RMK A01 T10411070  RH  080%=      5-min Rain = 0
KGO1 090354Z 34005KT M04/M07 A3029 RMK A01 T10411070  RH  081%=      5-min Rain = 0
KGO1 090355Z 35006KT M04/M07 A3029 RMK A01 T10401069  RH  080%=      5-min Rain = 0
KGO1 090356Z 35005KT M04/M07 A3029 RMK A01 T10391069  RH  080%=      5-min Rain = 0
KGO1 090357Z 35005KT M04/M07 A3029 RMK A01 T10391070  RH  079%=      5-min Rain = 0
KGO1 090358Z 36005KT M04/M07 A3029 RMK A01 T10391070  RH  079%=      5-min Rain = 0
KGO1 090359Z 36005KT M04/M07 A3029 RMK A01 T10391069  RH  079%=      5-min Rain = 0
KGO1 090400Z 36005KT M04/M07 A3029 RMK A01 T10391071  RH  079%=      5-min Rain = 0
KGO1 090401Z 00005KT M04/M07 A3029 RMK A01 T10391071  RH  079%=      5-min Rain = 0
KGO1 090402Z 36005KT M04/M07 A3029 RMK A01 T10391070  RH  079%=      5-min Rain = 0
KGO1 090403Z 35005KT M04/M07 A3029 RMK A01 T10401071  RH  079%=      5-min Rain = 0
KGO1 090404Z 35005KT M04/M07 A3029 RMK A01 T10401071  RH  079%=      5-min Rain = 0
KGO1 090405Z 34005KT M04/M07 A3029 RMK A01 T10401071  RH  079%=      5-min Rain = 0
KGO1 090406Z 34004KT M04/M07 A3029 RMK A01 T10401070  RH  080%=      5-min Rain = 0
KGO1 090407Z 34004KT M04/M07 A3029 RMK A01 T10391069  RH  080%=      5-min Rain = 0
KGO1 090408Z 35005KT M04/M07 A3029 RMK A01 T10381069  RH  079%=      5-min Rain = 0
KGO1 090409Z 35005KT M04/M07 A3029 RMK A01 T10381070  RH  079%=      5-min Rain = 0
KGO1 090410Z 35005KT M04/M07 A3029 RMK A01 T10391070  RH  078%=      5-min Rain = 0
KGO1 090411Z 35004KT M04/M07 A3029 RMK A01 T10391071  RH  078%=      5-min Rain = 0
KGO1 090412Z 35004KT M04/M07 A3029 RMK A01 T10381071  RH  078%=      5-min Rain = 0
KGO1 090413Z 35004KT M04/M07 A3029 RMK A01 T10381071  RH  078%=      5-min Rain = 0
KGO1 090414Z 35005KT M04/M07 A3029 RMK A01 T10391071  RH  078%=      5-min Rain = 0
KGO1 090415Z 34005KT M04/M07 A3029 RMK A01 T10381071  RH  078%=      5-min Rain = 0
KGO1 090416Z 34004KT M04/M07 A3029 RMK A01 T10381071  RH  078%=      5-min Rain = 0
KGO1 090417Z 34004KT M04/M07 A3029 RMK A01 T10381071  RH  078%=      5-min Rain = 0
KGO1 090418Z 34004KT M04/M07 A3029 RMK A01 T10381071  RH  078%=      5-min Rain = 0
KGO1 090419Z 34004KT M04/M07 A3029 RMK A01 T10381071  RH  078%=      5-min Rain = 0
KGO1 090420Z 34004KT M04/M07 A3029 RMK A01 T10381070  RH  078%=      5-min Rain = 0
KGO1 090421Z 34004KT M04/M07 A3029 RMK A01 T10371070  RH  078%=      5-min Rain = 0
KGO1 090422Z 34005KT M04/M07 A3029 RMK A01 T10371070  RH  078%=      5-min Rain = 0
KGO1 090423Z 34005KT M04/M07 A3029 RMK A01 T10361071  RH  077%=      5-min Rain = 0
KGO1 090424Z 34005KT M04/M07 A303 RMK A01 T10371071  RH  077%=      5-min Rain = 0
KGO1 090425Z 34005KT M04/M07 A303 RMK A01 T10371071  RH  077%=      5-min Rain = 0
KGO1 090426Z 33004KT M04/M07 A303 RMK A01 T10391073  RH  077%=      5-min Rain = 0
KGO1 090427Z 33004KT M04/M08 A303 RMK A01 T10411075  RH  077%=      5-min Rain = 0
KGO1 090428Z 33004KT M04/M07 A303 RMK A01 T10431074  RH  079%=      5-min Rain = 0
KGO1 090429Z 33004KT M04/M07 A303 RMK A01 T10441074  RH  079%=      5-min Rain = 0
KGO1 090430Z 33004KT M05/M08 A303 RMK A01 T10451076  RH  079%=      5-min Rain = 0
KGO1 090431Z 33004KT M05/M08 A303 RMK A01 T10481078  RH  079%=      5-min Rain = 0
KGO1 090432Z 32004KT M05/M08 A303 RMK A01 T10501079  RH  080%=      5-min Rain = 0
KGO1 090433Z 32004KT M05/M08 A303 RMK A01 T10511078  RH  081%=      5-min Rain = 0
KGO1 090434Z 32004KT M05/M08 A303 RMK A01 T10521079  RH  082%=      5-min Rain = 0
KGO1 090435Z 32004KT M05/M08 A303 RMK A01 T10531078  RH  083%=      5-min Rain = 0
KGO1 090436Z 32004KT M05/M08 A303 RMK A01 T10531077  RH  083%=      5-min Rain = 0
KGO1 090437Z 32003KT M05/M08 A303 RMK A01 T10531077  RH  084%=      5-min Rain = 0
KGO1 090438Z 32004KT M05/M08 A303 RMK A01 T10531076  RH  084%=      5-min Rain = 0
KGO1 090439Z 32004KT M05/M07 A303 RMK A01 T10511074  RH  084%=      5-min Rain = 0
KGO1 090440Z 32004KT M05/M07 A303 RMK A01 T10491073  RH  084%=      5-min Rain = 0
KGO1 090441Z 32004KT M05/M07 A303 RMK A01 T10481072  RH  083%=      5-min Rain = 0
KGO1 090442Z 32004KT M05/M07 A303 RMK A01 T10461073  RH  082%=      5-min Rain = 0
KGO1 090443Z 32004KT M05/M07 A303 RMK A01 T10461073  RH  081%=      5-min Rain = 0
KGO1 090444Z 32004KT M05/M07 A303 RMK A01 T10461074  RH  081%=      5-min Rain = 0
KGO1 090445Z 31004KT M05/M08 A303 RMK A01 T10471075  RH  081%=      5-min Rain = 0
KGO1 090446Z 31004KT M05/M08 A303 RMK A01 T10481076  RH  081%=      5-min Rain = 0
KGO1 090447Z 31004KT M05/M08 A303 RMK A01 T10491077  RH  081%=      5-min Rain = 0
KGO1 090448Z 31004KT M05/M08 A303 RMK A01 T10491076  RH  081%=      5-min Rain = 0
KGO1 090449Z 32004KT M05/M08 A303 RMK A01 T10481076  RH  081%=      5-min Rain = 0
KGO1 090450Z 32004KT M05/M08 A303 RMK A01 T10471076  RH  080%=      5-min Rain = 0
KGO1 090451Z 32004KT M05/M08 A303 RMK A01 T10471076  RH  080%=      5-min Rain = 0
KGO1 090452Z 32004KT M05/M08 A303 RMK A01 T10461075  RH  080%=      5-min Rain = 0
KGO1 090453Z 32004KT M04/M07 A303 RMK A01 T10441074  RH  080%=      5-min Rain = 0
KGO1 090454Z 32004KT M04/M08 A303 RMK A01 T10431075  RH  079%=      5-min Rain = 0
KGO1 090455Z 32004KT M04/M08 A3031 RMK A01 T10421075  RH  078%=      5-min Rain = 0
KGO1 090456Z 32004KT M04/M08 A3031 RMK A01 T10421075  RH  078%=      5-min Rain = 0
KGO1 090457Z 32004KT M04/M08 A3031 RMK A01 T10411075  RH  077%=      5-min Rain = 0
KGO1 090458Z 32004KT M04/M08 A3031 RMK A01 T10411075  RH  077%=      5-min Rain = 0
KGO1 090459Z 32004KT M04/M08 A3031 RMK A01 T10411075  RH  077%=      5-min Rain = 0
KGO1 090500Z 33004KT M04/M08 A3031 RMK A01 T10411076  RH  077%=      5-min Rain = 0
KGO1 090501Z 33004KT M04/M08 A3031 RMK A01 T10421078  RH  076%=      5-min Rain = 0
KGO1 090502Z 33004KT M04/M08 A3031 RMK A01 T10431078  RH  077%=      5-min Rain = 0
KGO1 090503Z 33004KT M04/M08 A3031 RMK A01 T10441078  RH  077%=      5-min Rain = 0
KGO1 090504Z 32004KT M05/M08 A3031 RMK A01 T10451079  RH  077%=      5-min Rain = 0
KGO1 090505Z 32004KT M05/M08 A3031 RMK A01 T10471081  RH  077%=      5-min Rain = 0
KGO1 090506Z 32004KT M05/M08 A3031 RMK A01 T10491082  RH  078%=      5-min Rain = 0
KGO1 090507Z 32004KT M05/M09 A3031 RMK A01 T10521085  RH  078%=      5-min Rain = 0
KGO1 090508Z 32004KT M05/M09 A3031 RMK A01 T10541086  RH  079%=      5-min Rain = 0
KGO1 090509Z 31004KT M06/M09 A3031 RMK A01 T10561086  RH  079%=      5-min Rain = 0
KGO1 090510Z 31004KT M06/M09 A3031 RMK A01 T10571086  RH  080%=      5-min Rain = 0
KGO1 090511Z 31005KT M06/M09 A3031 RMK A01 T10571086  RH  080%=      5-min Rain = 0
KGO1 090512Z 31005KT M06/M09 A3031 RMK A01 T10561085  RH  080%=      5-min Rain = 0
KGO1 090513Z 32005KT M05/M08 A3031 RMK A01 T10541083  RH  080%=      5-min Rain = 0
KGO1 090514Z 32005KT M05/M08 A3031 RMK A01 T10511082  RH  079%=      5-min Rain = 0
KGO1 090515Z 32005KT M05/M08 A3031 RMK A01 T10501083  RH  077%=      5-min Rain = 0
KGO1 090516Z 32005KT M05/M08 A3032 RMK A01 T10491084  RH  077%=      5-min Rain = 0
KGO1 090517Z 32005KT M05/M08 A3032 RMK A01 T10491084  RH  076%=      5-min Rain = 0
KGO1 090518Z 32005KT M05/M08 A3032 RMK A01 T10481083  RH  076%=      5-min Rain = 0
KGO1 090519Z 32005KT M05/M08 A3032 RMK A01 T10471083  RH  076%=      5-min Rain = 0
KGO1 090520Z 32005KT M05/M08 A3032 RMK A01 T10471083  RH  076%=      5-min Rain = 0
KGO1 090521Z 32005KT M05/M08 A3032 RMK A01 T10481084  RH  076%=      5-min Rain = 0
KGO1 090522Z 32006KT M05/M08 A3032 RMK A01 T10491084  RH  077%=      5-min Rain = 0
KGO1 090523Z 32006KT M05/M08 A3032 RMK A01 T10491082  RH  077%=      5-min Rain = 0
KGO1 090524Z 32006KT M05/M08 A3032 RMK A01 T10481081  RH  077%=      5-min Rain = 0
KGO1 090525Z 33006KT M05/M08 A3032 RMK A01 T10471082  RH  077%=      5-min Rain = 0
KGO1 090526Z 33006KT M05/M08 A3032 RMK A01 T10471083  RH  076%=      5-min Rain = 0
KGO1 090527Z 33006KT M05/M09 A3032 RMK A01 T10501087  RH  075%=      5-min Rain = 0
KGO1 090528Z 33006KT M05/M09 A3032 RMK A01 T10531088  RH  076%=      5-min Rain = 0
KGO1 090529Z 33006KT M05/M09 A3032 RMK A01 T10541087  RH  078%=      5-min Rain = 0
KGO1 090530Z 33006KT M06/M09 A3032 RMK A01 T10561086  RH  079%=      5-min Rain = 0
KGO1 090531Z 33006KT M06/M09 A3032 RMK A01 T10561086  RH  079%=      5-min Rain = 0
KGO1 090532Z 34006KT M06/M09 A3032 RMK A01 T10561086  RH  079%=      5-min Rain = 0
KGO1 090533Z 34005KT M06/M09 A3032 RMK A01 T10561086  RH  079%=      5-min Rain = 0
KGO1 090534Z 34005KT M06/M09 A3032 RMK A01 T10561086  RH  079%=      5-min Rain = 0
KGO1 090535Z 34005KT M06/M09 A3032 RMK A01 T10561087  RH  079%=      5-min Rain = 0
KGO1 090536Z 34005KT M06/M09 A3032 RMK A01 T10561087  RH  079%=      5-min Rain = 0
KGO1 090537Z 35005KT M06/M09 A3032 RMK A01 T10561087  RH  079%=      5-min Rain = 0
KGO1 090538Z 35004KT M06/M09 A3032 RMK A01 T10561087  RH  079%=      5-min Rain = 0
KGO1 090539Z 34004KT M06/M09 A3032 RMK A01 T10551088  RH  078%=      5-min Rain = 0
KGO1 090540Z 34004KT M05/M09 A3032 RMK A01 T10531087  RH  077%=      5-min Rain = 0
KGO1 090541Z 33004KT M05/M09 A3032 RMK A01 T10511087  RH  076%=      5-min Rain = 0
KGO1 090542Z 34005KT M05/M09 A3032 RMK A01 T10501087  RH  075%=      5-min Rain = 0
KGO1 090543Z 34005KT M05/M09 A3032 RMK A01 T10481088  RH  074%=      5-min Rain = 0
KGO1 090544Z 34005KT M05/M09 A3032 RMK A01 T10481088  RH  073%=      5-min Rain = 0
KGO1 090545Z 34005KT M05/M09 A3032 RMK A01 T10481088  RH  073%=      5-min Rain = 0
KGO1 090546Z 34005KT M05/M09 A3032 RMK A01 T10481088  RH  074%=      5-min Rain = 0
KGO1 090547Z 34005KT M05/M09 A3032 RMK A01 T10491089  RH  074%=      5-min Rain = 0
KGO1 090548Z 34005KT M05/M09 A3032 RMK A01 T10501089  RH  074%=      5-min Rain = 0
KGO1 090549Z 33005KT M05/M09 A3032 RMK A01 T10511089  RH  075%=      5-min Rain = 0
KGO1 090550Z 34005KT M05/M09 A3032 RMK A01 T10521089  RH  075%=      5-min Rain = 0
KGO1 090551Z 34005KT M05/M09 A3032 RMK A01 T10531090  RH  076%=      5-min Rain = 0
KGO1 090552Z 34005KT M05/M09 A3032 RMK A01 T10541090  RH  076%=      5-min Rain = 0
KGO1 090553Z 34005KT M05/M09 A3032 RMK A01 T10541090  RH  076%=      5-min Rain = 0
KGO1 090554Z 33005KT M05/M09 A3032 RMK A01 T10541090  RH  076%=      5-min Rain = 0
KGO1 090555Z 33005KT M05/M09 A3031 RMK A01 T10541090  RH  076%=      5-min Rain = 0
KGO1 090556Z 34005KT M05/M09 A3031 RMK A01 T10541090  RH  076%=      5-min Rain = 0
KGO1 090557Z 34004KT M05/M09 A3031 RMK A01 T10541091  RH  076%=      5-min Rain = 0
KGO1 090558Z 34004KT M05/M09 A3031 RMK A01 T10531090  RH  075%=      5-min Rain = 0
KGO1 090559Z 34005KT M05/M09 A3031 RMK A01 T10521091  RH  074%=      5-min Rain = 0

Page generated in 0.0772 seconds.